| time (UTC) | temp F | wind direction | speed knots | gust knots | rain 1hr in | rain 24hr in | rain mn in | humidity % | barometer mb |
| 20260507131422 | 56 | 112 | 0.0 | 0.0 | 0.00 | 1.48 | 0.38 | 83 | 995.9 |
| 20260507131322 | 56 | 112 | 0.0 | 0.0 | 0.00 | 1.48 | 0.38 | 83 | 995.7 |
| 20260507131222 | 56 | 112 | 0.0 | 0.0 | 0.00 | 1.48 | 0.38 | 83 | 995.8 |
| 20260507131122 | 56 | 112 | 0.0 | 0.0 | 0.00 | 1.49 | 0.38 | 82 | 995.8 |
| 20260507131022 | 56 | 112 | 0.0 | 0.0 | 0.00 | 1.50 | 0.38 | 82 | 995.8 |
| 20260507130921 | 56 | 112 | 0.0 | 0.0 | 0.00 | 1.50 | 0.38 | 82 | 995.7 |
| 20260507130821 | 56 | 112 | 0.0 | 0.0 | 0.00 | 1.51 | 0.38 | 82 | 995.7 |
| 20260507130721 | 56 | 112 | 0.0 | 0.0 | 0.00 | 1.52 | 0.38 | 82 | 995.8 |
| 20260507130621 | 56 | 112 | 0.0 | 0.0 | 0.00 | 1.54 | 0.38 | 82 | 995.8 |
| 20260507130521 | 56 | 112 | 0.0 | 0.0 | 0.00 | 1.56 | 0.38 | 83 | 995.7 |
| 20260507130421 | 56 | 120 | 0.0 | 0.0 | 0.00 | 1.59 | 0.38 | 83 | 995.7 |
| 20260507130321 | 56 | 122 | 0.0 | 0.0 | 0.00 | 1.65 | 0.38 | 82 | 995.8 |
| 20260507130221 | 56 | 112 | 0.0 | 0.0 | 0.00 | 1.67 | 0.38 | 82 | 995.7 |
| 20260507130121 | 56 | 114 | 0.0 | 0.9 | 0.00 | 1.68 | 0.38 | 82 | 995.7 |
| 20260507130021 | 56 | 127 | 0.0 | 0.9 | 0.00 | 1.70 | 0.38 | 81 | 995.7 |
| 20260507125921 | 56 | 118 | 0.0 | 0.0 | 0.00 | 1.77 | 0.38 | 80 | 995.7 |
| 20260507125821 | 56 | 135 | 0.0 | 0.0 | 0.00 | 1.77 | 0.38 | 78 | 995.7 |
| 20260507125721 | 56 | 135 | 0.0 | 0.0 | 0.00 | 1.78 | 0.38 | 78 | 995.7 |
| 20260507125621 | 56 | 135 | 0.0 | 0.9 | 0.00 | 1.78 | 0.38 | 78 | 995.7 |
| 20260507125521 | 56 | 135 | 0.0 | 0.9 | 0.00 | 1.78 | 0.38 | 77 | 995.7 |
| 20260507125421 | 56 | 144 | 0.0 | 0.9 | 0.00 | 1.78 | 0.38 | 76 | 995.6 |
| 20260507125321 | 57 | 140 | 0.9 | 0.9 | 0.00 | 1.78 | 0.38 | 75 | 995.7 |
| 20260507125221 | 57 | 127 | 0.0 | 0.9 | 0.00 | 1.78 | 0.38 | 77 | 995.7 |
| 20260507125121 | 57 | 112 | 0.0 | 0.9 | 0.00 | 1.78 | 0.38 | 77 | 995.8 |
| 20260507125021 | 57 | 112 | 0.0 | 0.9 | 0.00 | 1.78 | 0.38 | 77 | 995.6 |
| 20260507124921 | 57 | 93 | 0.0 | 0.9 | 0.00 | 1.78 | 0.38 | 76 | 995.8 |
| 20260507124821 | 57 | 90 | 0.0 | 0.0 | 0.00 | 1.78 | 0.38 | 76 | 995.6 |
| 20260507124723 | 56 | 97 | 0.0 | 0.9 | 0.00 | 1.78 | 0.38 | 76 | 995.7 |
| 20260507124623 | 56 | 100 | 0.0 | 0.9 | 0.00 | 1.78 | 0.38 | 75 | 995.7 |
| 20260507124523 | 56 | 96 | 0.0 | 0.9 | 0.00 | 1.78 | 0.38 | 75 | 995.7 |
| 20260507124422 | 56 | 135 | 0.0 | 0.9 | 0.00 | 1.78 | 0.38 | 73 | 995.7 |
| 20260507124322 | 57 | 135 | 0.0 | 0.9 | 0.00 | 1.78 | 0.38 | 73 | 995.6 |
| 20260507124222 | 57 | 122 | 0.9 | 0.9 | 0.00 | 1.78 | 0.38 | 73 | 995.7 |
| 20260507124122 | 57 | 128 | 0.0 | 0.9 | 0.00 | 1.78 | 0.38 | 76 | 995.7 |
| 20260507124022 | 57 | 112 | 0.0 | 0.0 | 0.00 | 1.78 | 0.38 | 77 | 995.7 |
| 20260507123922 | 56 | 120 | 0.0 | 0.0 | 0.00 | 1.78 | 0.38 | 76 | 995.7 |
| 20260507123822 | 56 | 135 | 0.0 | 0.9 | 0.00 | 1.78 | 0.38 | 75 | 995.7 |
| 20260507123722 | 57 | 135 | 0.0 | 1.7 | 0.00 | 1.78 | 0.38 | 74 | 995.6 |
| 20260507123622 | 57 | 137 | 0.9 | 0.9 | 0.00 | 1.78 | 0.38 | 75 | 995.6 |
| 20260507123522 | 57 | 125 | 0.0 | 0.9 | 0.00 | 1.78 | 0.38 | 75 | 995.6 |
| 20260507123422 | 56 | 116 | 0.0 | 0.0 | 0.00 | 1.78 | 0.38 | 76 | 995.6 |
| 20260507123322 | 57 | 135 | 0.0 | 0.9 | 0.00 | 1.78 | 0.38 | 75 | 995.6 |
| 20260507123222 | 57 | 135 | 0.0 | 0.9 | 0.00 | 1.78 | 0.38 | 74 | 995.8 |
| 20260507123122 | 57 | 146 | 0.0 | 0.9 | 0.00 | 1.78 | 0.38 | 75 | 995.6 |
| 20260507123022 | 57 | 158 | 0.0 | 0.0 | 0.00 | 1.78 | 0.38 | 76 | 995.7 |
| 20260507122922 | 57 | 153 | 0.0 | 0.0 | 0.00 | 1.78 | 0.38 | 74 | 995.8 |
| 20260507122822 | 57 | 138 | 0.0 | 0.0 | 0.00 | 1.78 | 0.38 | 73 | 995.7 |
| 20260507122722 | 57 | 150 | 0.0 | 0.0 | 0.00 | 1.78 | 0.38 | 74 | 995.7 |
| 20260507122622 | 56 | 107 | 0.0 | 0.0 | 0.00 | 1.78 | 0.38 | 77 | 995.7 |
| 20260507122522 | 56 | 90 | 0.0 | 0.0 | 0.00 | 1.78 | 0.38 | 78 | 995.6 |
| 20260507122422 | 56 | 93 | 0.0 | 0.0 | 0.00 | 1.78 | 0.38 | 78 | 995.6 |
| 20260507122322 | 56 | 112 | 0.0 | 0.9 | 0.00 | 1.78 | 0.38 | 78 | 995.6 |
| 20260507122222 | 56 | 147 | 0.0 | 0.9 | 0.00 | 1.78 | 0.38 | 78 | 995.5 |
| 20260507122122 | 56 | 262 | 0.0 | 1.7 | 0.00 | 1.78 | 0.38 | 77 | 995.8 |
| 20260507122022 | 56 | 267 | 0.9 | 1.7 | 0.00 | 1.78 | 0.38 | 77 | 995.8 |
| 20260507121921 | 56 | 256 | 0.9 | 1.7 | 0.00 | 1.78 | 0.38 | 75 | 995.6 |
| 20260507121822 | 56 | 270 | 0.9 | 1.7 | 0.00 | 1.78 | 0.38 | 75 | 995.6 |
| 20260507121721 | 56 | 270 | 0.9 | 0.9 | 0.00 | 1.78 | 0.38 | 75 | 995.6 |
| 20260507121621 | 56 | 270 | 0.9 | 1.7 | 0.00 | 1.78 | 0.38 | 76 | 995.6 |
| 20260507121521 | 56 | 293 | 0.0 | 0.9 | 0.00 | 1.78 | 0.38 | 75 | 995.7 |
| 20260507121421 | 56 | 313 | 0.0 | 0.9 | 0.00 | 1.78 | 0.38 | 75 | 995.5 |
| 20260507121321 | 56 | 252 | 0.0 | 0.9 | 0.00 | 1.78 | 0.38 | 77 | 995.5 |
| 20260507121221 | 56 | 346 | 0.0 | 0.0 | 0.00 | 1.78 | 0.38 | 76 | 995.5 |
| 20260507121121 | 56 | 18 | 0.0 | 0.0 | 0.00 | 1.78 | 0.38 | 76 | 995.6 |
| 20260507121021 | 56 | 28 | 0.0 | 0.9 | 0.00 | 1.78 | 0.38 | 75 | 995.5 |
| 20260507120921 | 56 | 342 | 0.0 | 0.9 | 0.00 | 1.78 | 0.38 | 76 | 995.6 |
| 20260507120821 | 56 | 291 | 0.0 | 0.9 | 0.00 | 1.78 | 0.38 | 75 | 995.5 |
| 20260507120721 | 56 | 283 | 0.9 | 1.7 | 0.00 | 1.78 | 0.38 | 75 | 995.5 |
| 20260507120621 | 56 | 270 | 0.9 | 1.7 | 0.00 | 1.78 | 0.38 | 74 | 995.4 |
| 20260507120521 | 56 | 270 | 0.9 | 0.9 | 0.00 | 1.78 | 0.38 | 74 | 995.6 |
| 20260507120421 | 56 | 270 | 0.9 | 2.6 | 0.00 | 1.78 | 0.38 | 73 | 995.5 |
| 20260507120321 | 56 | 282 | 0.0 | 2.6 | 0.00 | 1.78 | 0.38 | 74 | 995.3 |
| 20260507120221 | 56 | 291 | 0.0 | 0.9 | 0.00 | 1.78 | 0.38 | 75 | 995.5 |
| 20260507120121 | 56 | 271 | 0.9 | 0.9 | 0.00 | 1.78 | 0.38 | 74 | 995.5 |
| 20260507120023 | 56 | 289 | 0.9 | 1.7 | 0.00 | 1.78 | 0.38 | 73 | 995.6 |
| 20260507115923 | 56 | 281 | 1.7 | 1.7 | 0.00 | 1.78 | 0.38 | 72 | 995.4 |
| 20260507115823 | 57 | 270 | 1.7 | 1.7 | 0.00 | 1.78 | 0.38 | 71 | 995.3 |
| 20260507115723 | 57 | 270 | 0.9 | 1.7 | 0.00 | 1.78 | 0.38 | 70 | 995.7 |
| 20260507115623 | 58 | 284 | 0.9 | 1.7 | 0.00 | 1.78 | 0.38 | 71 | 995.7 |
| 20260507115522 | 58 | 270 | 0.9 | 1.7 | 0.00 | 1.78 | 0.38 | 73 | 995.5 |
| 20260507115422 | 58 | 90 | 0.0 | 0.9 | 0.00 | 1.78 | 0.38 | 71 | 995.6 |
| 20260507115322 | 58 | 104 | 0.0 | 0.9 | 0.00 | 1.78 | 0.38 | 70 | 995.6 |
| 20260507115222 | 58 | 122 | 0.0 | 0.9 | 0.00 | 1.78 | 0.38 | 70 | 995.5 |
| 20260507115122 | 57 | 90 | 0.0 | 0.9 | 0.00 | 1.78 | 0.38 | 71 | 995.5 |
| 20260507115022 | 57 | 105 | 0.0 | 0.9 | 0.00 | 1.78 | 0.38 | 70 | 995.5 |
| 20260507114922 | 57 | 112 | 0.0 | 0.9 | 0.00 | 1.78 | 0.38 | 70 | 995.4 |
| 20260507114822 | 57 | 93 | 0.0 | 0.9 | 0.00 | 1.78 | 0.38 | 73 | 995.4 |
| 20260507114722 | 57 | 325 | 0.0 | 0.9 | 0.00 | 1.78 | 0.38 | 73 | 995.5 |
| 20260507114622 | 57 | 292 | 0.0 | 0.9 | 0.00 | 1.78 | 0.38 | 75 | 995.6 |
| 20260507114522 | 57 | 262 | 0.9 | 1.7 | 0.00 | 1.78 | 0.38 | 75 | 995.6 |
| 20260507114422 | 57 | 226 | 0.9 | 1.7 | 0.00 | 1.78 | 0.38 | 73 | 995.5 |
| 20260507114322 | 57 | 270 | 0.9 | 1.7 | 0.00 | 1.78 | 0.38 | 74 | 995.4 |
| 20260507114222 | 57 | 283 | 0.0 | 0.9 | 0.00 | 1.78 | 0.38 | 74 | 995.5 |
| 20260507114122 | 57 | 291 | 0.9 | 1.7 | 0.00 | 1.78 | 0.38 | 72 | 995.5 |
| 20260507114022 | 58 | 272 | 0.9 | 1.7 | 0.00 | 1.78 | 0.38 | 70 | 995.6 |
| 20260507113922 | 58 | 279 | 0.9 | 1.7 | 0.00 | 1.78 | 0.38 | 71 | 995.5 |
| 20260507113822 | 58 | 292 | 0.0 | 1.7 | 0.00 | 1.78 | 0.38 | 71 | 995.5 |
| 20260507113722 | 58 | 292 | 0.9 | 1.7 | 0.00 | 1.78 | 0.38 | 71 | 995.5 |
| 20260507113622 | 58 | 292 | 0.0 | 1.7 | 0.00 | 1.78 | 0.38 | 71 | 995.5 |
| 20260507113522 | 58 | 322 | 0.0 | 0.9 | 0.00 | 1.78 | 0.38 | 73 | 995.5 |
| 20260507113422 | 59 | 124 | 0.0 | 0.9 | 0.00 | 1.78 | 0.38 | 73 | 995.5 |
| 20260507113322 | 59 | 135 | 0.0 | 0.9 | 0.00 | 1.78 | 0.38 | 72 | 995.4 |
| 20260507113222 | 59 | 125 | 0.0 | 0.9 | 0.00 | 1.78 | 0.38 | 71 | 995.5 |
| 20260507113121 | 59 | 88 | 0.0 | 0.9 | 0.00 | 1.78 | 0.38 | 73 | 995.5 |
| 20260507113023 | 59 | 43 | 0.0 | 1.7 | 0.00 | 1.78 | 0.38 | 75 | 995.4 |
| 20260507112921 | 58 | 56 | 0.0 | 1.7 | 0.00 | 1.78 | 0.38 | 76 | 995.4 |
| 20260507112821 | 58 | 109 | 0.0 | 0.0 | 0.00 | 1.78 | 0.38 | 75 | 995.5 |
| 20260507112721 | 58 | 112 | 0.0 | 1.7 | 0.00 | 1.78 | 0.38 | 74 | 995.3 |
| 20260507112621 | 58 | 86 | 0.0 | 1.7 | 0.00 | 1.78 | 0.38 | 73 | 995.2 |
| 20260507112521 | 58 | 71 | 0.0 | 0.0 | 0.00 | 1.78 | 0.38 | 74 | 995.5 |
| 20260507112421 | 57 | 125 | 0.0 | 0.9 | 0.00 | 1.78 | 0.38 | 74 | 995.3 |
| 20260507112321 | 57 | 125 | 0.0 | 0.9 | 0.00 | 1.78 | 0.38 | 75 | 995.5 |
| 20260507112221 | 57 | 135 | 0.0 | 0.0 | 0.00 | 1.78 | 0.38 | 75 | 995.4 |
| 20260507112121 | 56 | 135 | 0.0 | 0.0 | 0.00 | 1.78 | 0.38 | 77 | 995.3 |
| 20260507112021 | 56 | 135 | 0.0 | 0.9 | 0.00 | 1.78 | 0.38 | 77 | 995.4 |
| 20260507111921 | 56 | 67 | 0.0 | 0.9 | 0.00 | 1.78 | 0.38 | 77 | 995.4 |
| 20260507111821 | 56 | 76 | 0.0 | 0.9 | 0.00 | 1.78 | 0.38 | 77 | 995.4 |
| 20260507111721 | 56 | 49 | 0.0 | 1.7 | 0.00 | 1.78 | 0.38 | 77 | 995.5 |
| 20260507111621 | 56 | 67 | 0.9 | 1.7 | 0.00 | 1.78 | 0.38 | 79 | 995.4 |
| 20260507111521 | 56 | 162 | 0.0 | 0.9 | 0.00 | 1.78 | 0.38 | 80 | 995.5 |
| 20260507111421 | 56 | 180 | 0.0 | 0.0 | 0.00 | 1.78 | 0.38 | 80 | 995.5 |
| 20260507111321 | 56 | 180 | 0.0 | 0.0 | 0.00 | 1.78 | 0.38 | 79 | 995.4 |
| 20260507111221 | 56 | 180 | 0.0 | 0.0 | 0.00 | 1.78 | 0.38 | 80 | 995.5 |
| 20260507111123 | 55 | 180 | 0.0 | 0.0 | 0.00 | 1.78 | 0.38 | 81 | 995.4 |
| 20260507111023 | 55 | 180 | 0.0 | 0.0 | 0.00 | 1.78 | 0.38 | 81 | 995.4 |
| 20260507110923 | 55 | 180 | 0.0 | 0.9 | 0.00 | 1.78 | 0.38 | 82 | 995.4 |
| 20260507110823 | 55 | 180 | 0.0 | 0.9 | 0.00 | 1.78 | 0.38 | 81 | 995.4 |
| 20260507110723 | 55 | 199 | 0.0 | 0.9 | 0.00 | 1.78 | 0.38 | 81 | 995.4 |
| 20260507110622 | 55 | 303 | 0.0 | 0.9 | 0.00 | 1.78 | 0.38 | 82 | 995.4 |
| 20260507110522 | 55 | 292 | 0.0 | 0.0 | 0.00 | 1.78 | 0.38 | 84 | 995.4 |
| 20260507110422 | 55 | 292 | 0.0 | 0.0 | 0.00 | 1.78 | 0.38 | 85 | 995.4 |
| 20260507110322 | 55 | 292 | 0.0 | 0.0 | 0.00 | 1.78 | 0.38 | 85 | 995.4 |
| 20260507110222 | 54 | 292 | 0.0 | 0.0 | 0.00 | 1.78 | 0.38 | 85 | 995.5 |
| 20260507110122 | 54 | 292 | 0.0 | 0.0 | 0.00 | 1.78 | 0.38 | 85 | 995.5 |
| 20260507110022 | 54 | 292 | 0.0 | 0.0 | 0.00 | 1.78 | 0.38 | 85 | 995.5 |
| 20260507105922 | 54 | 292 | 0.0 | 0.0 | 0.00 | 1.78 | 0.38 | 85 | 995.4 |
| 20260507105822 | 54 | 292 | 0.0 | 0.0 | 0.00 | 1.78 | 0.38 | 84 | 995.4 |
| 20260507105722 | 54 | 292 | 0.0 | 0.0 | 0.00 | 1.78 | 0.38 | 84 | 995.6 |
| 20260507105622 | 54 | 292 | 0.0 | 0.0 | 0.00 | 1.78 | 0.38 | 83 | 995.6 |
| 20260507105522 | 54 | 292 | 0.0 | 0.0 | 0.00 | 1.78 | 0.38 | 83 | 995.4 |
| 20260507105422 | 54 | 292 | 0.0 | 0.0 | 0.00 | 1.78 | 0.38 | 83 | 995.5 |
| 20260507105322 | 53 | 292 | 0.0 | 0.0 | 0.00 | 1.78 | 0.38 | 84 | 995.5 |
| 20260507105222 | 53 | 292 | 0.0 | 0.0 | 0.00 | 1.78 | 0.38 | 83 | 995.4 |
| 20260507105122 | 53 | 292 | 0.0 | 0.0 | 0.00 | 1.78 | 0.38 | 82 | 995.5 |
| 20260507105022 | 53 | 292 | 0.0 | 0.0 | 0.00 | 1.78 | 0.38 | 84 | 995.5 |
| 20260507104922 | 53 | 292 | 0.0 | 0.9 | 0.00 | 1.78 | 0.38 | 85 | 995.4 |
| 20260507104822 | 53 | 292 | 0.9 | 0.9 | 0.00 | 1.78 | 0.38 | 84 | 995.5 |
| 20260507104722 | 53 | 292 | 0.0 | 0.9 | 0.00 | 1.78 | 0.38 | 84 | 995.5 |
| 20260507104622 | 53 | 292 | 0.0 | 0.9 | 0.00 | 1.78 | 0.38 | 82 | 995.5 |
| 20260507104522 | 53 | 259 | 0.9 | 1.7 | 0.00 | 1.78 | 0.38 | 83 | 995.6 |
| 20260507104422 | 53 | 300 | 0.9 | 1.7 | 0.00 | 1.78 | 0.38 | 83 | 995.4 |
| 20260507104322 | 53 | 315 | 0.9 | 1.7 | 0.00 | 1.78 | 0.38 | 83 | 995.5 |
| 20260507104222 | 53 | 315 | 0.9 | 1.7 | 0.00 | 1.78 | 0.38 | 83 | 995.5 |
| 20260507104122 | 53 | 315 | 0.9 | 1.7 | 0.00 | 1.78 | 0.38 | 82 | 995.5 |
| 20260507104022 | 53 | 306 | 0.9 | 1.7 | 0.00 | 1.78 | 0.38 | 82 | 995.6 |
| 20260507103921 | 53 | 292 | 0.9 | 1.7 | 0.00 | 1.78 | 0.38 | 82 | 995.6 |
| 20260507103821 | 54 | 292 | 0.9 | 1.7 | 0.00 | 1.78 | 0.38 | 81 | 995.6 |
| 20260507103721 | 54 | 310 | 0.9 | 1.7 | 0.00 | 1.78 | 0.38 | 81 | 995.5 |
| 20260507103621 | 54 | 313 | 0.9 | 1.7 | 0.00 | 1.78 | 0.38 | 80 | 995.7 |
| 20260507103521 | 54 | 285 | 0.9 | 1.7 | 0.00 | 1.78 | 0.38 | 80 | 995.4 |
| 20260507103421 | 54 | 287 | 0.9 | 1.7 | 0.00 | 1.78 | 0.38 | 80 | 995.5 |
| 20260507103321 | 54 | 307 | 0.9 | 1.7 | 0.00 | 1.78 | 0.38 | 80 | 995.4 |
| 20260507103221 | 54 | 295 | 0.9 | 2.6 | 0.00 | 1.78 | 0.38 | 78 | 995.5 |
| 20260507103121 | 54 | 315 | 1.7 | 4.3 | 0.00 | 1.78 | 0.38 | 78 | 995.5 |
| 20260507103021 | 54 | 292 | 1.7 | 4.3 | 0.00 | 1.78 | 0.38 | 79 | 995.5 |
| 20260507102921 | 54 | 272 | 0.9 | 4.3 | 0.00 | 1.78 | 0.38 | 80 | 995.4 |
| 20260507102821 | 55 | 292 | 0.9 | 0.9 | 0.00 | 1.78 | 0.38 | 80 | 995.4 |
| 20260507102721 | 55 | 292 | 0.0 | 0.9 | 0.00 | 1.78 | 0.38 | 80 | 995.5 |
| 20260507102621 | 55 | 292 | 0.0 | 1.7 | 0.00 | 1.78 | 0.38 | 80 | 995.5 |
| 20260507102521 | 55 | 292 | 0.9 | 2.6 | 0.00 | 1.78 | 0.38 | 77 | 995.5 |
| 20260507102421 | 55 | 291 | 1.7 | 2.6 | 0.00 | 1.78 | 0.38 | 76 | 995.3 |
| 20260507102321 | 55 | 271 | 0.9 | 2.6 | 0.00 | 1.78 | 0.38 | 77 | 995.4 |
| 20260507102221 | 55 | 270 | 0.9 | 2.6 | 0.00 | 1.78 | 0.38 | 78 | 995.4 |
| 20260507102121 | 55 | 270 | 0.9 | 1.7 | 0.00 | 1.78 | 0.38 | 77 | 995.5 |
| 20260507102021 | 55 | 270 | 0.9 | 0.9 | 0.00 | 1.78 | 0.38 | 78 | 995.4 |
| 20260507101923 | 55 | 278 | 0.9 | 0.9 | 0.00 | 1.78 | 0.38 | 79 | 995.3 |
| 20260507101823 | 55 | 292 | 0.0 | 0.9 | 0.00 | 1.78 | 0.38 | 79 | 995.5 |
| 20260507101723 | 54 | 213 | 0.0 | 0.9 | 0.00 | 1.78 | 0.38 | 79 | 995.5 |
| 20260507101623 | 54 | 211 | 0.9 | 1.7 | 0.00 | 1.78 | 0.38 | 80 | 995.5 |
| 20260507101523 | 54 | 289 | 0.9 | 1.7 | 0.00 | 1.78 | 0.38 | 79 | 995.4 |
| 20260507101422 | 54 | 270 | 1.7 | 4.3 | 0.00 | 1.78 | 0.38 | 79 | 995.4 |
| 20260507101322 | 54 | 270 | 1.7 | 4.3 | 0.00 | 1.78 | 0.38 | 79 | 995.5 |
| 20260507101222 | 54 | 268 | 1.7 | 2.6 | 0.00 | 1.78 | 0.38 | 78 | 995.4 |
| 20260507101122 | 54 | 248 | 0.9 | 2.6 | 0.00 | 1.78 | 0.38 | 78 | 995.4 |
| 20260507101022 | 54 | 264 | 1.7 | 2.6 | 0.00 | 1.78 | 0.38 | 78 | 995.4 |
| 20260507100922 | 55 | 270 | 0.9 | 2.6 | 0.00 | 1.78 | 0.38 | 78 | 995.4 |
| 20260507100822 | 55 | 90 | 0.9 | 4.3 | 0.00 | 1.78 | 0.38 | 79 | 995.4 |
| 20260507100722 | 55 | 270 | 0.0 | 4.3 | 0.00 | 1.78 | 0.38 | 78 | 995.4 |
| 20260507100622 | 54 | 272 | 0.0 | 0.9 | 0.00 | 1.78 | 0.38 | 80 | 995.3 |
| 20260507100522 | 54 | 16 | 0.0 | 0.9 | 0.00 | 1.78 | 0.38 | 80 | 995.4 |
| 20260507100422 | 54 | 326 | 0.0 | 0.9 | 0.00 | 1.78 | 0.38 | 80 | 995.4 |
| 20260507100322 | 54 | 315 | 0.0 | 1.7 | 0.00 | 1.78 | 0.38 | 80 | 995.3 |
| 20260507100222 | 54 | 278 | 0.9 | 2.6 | 0.00 | 1.78 | 0.38 | 80 | 995.4 |
| 20260507100122 | 54 | 290 | 0.0 | 2.6 | 0.00 | 1.78 | 0.38 | 81 | 995.2 |
| 20260507100022 | 54 | 255 | 0.9 | 4.3 | 0.00 | 1.78 | 0.38 | 80 | 995.2 |
| 20260507095922 | 54 | 244 | 1.7 | 4.3 | 0.00 | 1.78 | 0.38 | 80 | 995.2 |
| 20260507095822 | 54 | 282 | 1.7 | 2.6 | 0.00 | 1.78 | 0.38 | 81 | 995.2 |
| 20260507095722 | 54 | 273 | 0.9 | 2.6 | 0.00 | 1.78 | 0.38 | 82 | 995.3 |
| 20260507095622 | 54 | 332 | 0.0 | 2.6 | 0.00 | 1.78 | 0.38 | 81 | 995.3 |
| 20260507095522 | 54 | 267 | 0.9 | 4.3 | 0.00 | 1.78 | 0.38 | 81 | 995.2 |
| 20260507095422 | 54 | 263 | 2.6 | 5.2 | 0.00 | 1.78 | 0.38 | 80 | 995.1 |
| 20260507095322 | 54 | 270 | 2.6 | 5.2 | 0.00 | 1.78 | 0.38 | 80 | 995.1 |
| 20260507095222 | 55 | 270 | 2.6 | 6.1 | 0.00 | 1.78 | 0.38 | 79 | 995.1 |
| 20260507095122 | 55 | 270 | 0.9 | 2.6 | 0.00 | 1.78 | 0.38 | 79 | 995.2 |
| 20260507095022 | 55 | 339 | 0.9 | 2.6 | 0.00 | 1.78 | 0.38 | 80 | 995.3 |
| 20260507094922 | 55 | 45 | 0.0 | 0.0 | 0.00 | 1.78 | 0.38 | 81 | 995.1 |
| 20260507094822 | 55 | 351 | 0.0 | 1.7 | 0.00 | 1.78 | 0.38 | 81 | 995.2 |
| 20260507094721 | 55 | 0 | 0.9 | 1.7 | 0.00 | 1.78 | 0.38 | 80 | 995.1 |
| 20260507094621 | 55 | 324 | 0.0 | 1.7 | 0.00 | 1.78 | 0.38 | 80 | 995.1 |
| 20260507094521 | 55 | 330 | 0.0 | 0.9 | 0.00 | 1.78 | 0.38 | 81 | 995.2 |
| 20260507094421 | 55 | 290 | 0.0 | 0.9 | 0.00 | 1.78 | 0.38 | 80 | 995.1 |
| 20260507094321 | 55 | 132 | 0.0 | 0.9 | 0.00 | 1.78 | 0.38 | 80 | 995.2 |
| 20260507094221 | 55 | 42 | 0.0 | 0.9 | 0.00 | 1.78 | 0.38 | 81 | 995.2 |
| 20260507094121 | 55 | 52 | 0.0 | 0.9 | 0.00 | 1.78 | 0.38 | 81 | 995.3 |
| 20260507094021 | 55 | 46 | 0.0 | 0.9 | 0.00 | 1.78 | 0.38 | 81 | 995.0 |
| 20260507093921 | 55 | 0 | 0.0 | 0.9 | 0.00 | 1.78 | 0.38 | 82 | 995.0 |
| 20260507093821 | 55 | 32 | 0.9 | 0.9 | 0.00 | 1.78 | 0.38 | 81 | 995.1 |
| 20260507093721 | 55 | 286 | 0.0 | 0.9 | 0.00 | 1.78 | 0.38 | 82 | 995.0 |
| 20260507093621 | 55 | 45 | 0.0 | 0.9 | 0.00 | 1.78 | 0.38 | 82 | 995.1 |
| 20260507093521 | 55 | 344 | 0.0 | 2.6 | 0.00 | 1.78 | 0.38 | 83 | 995.2 |
| 20260507093421 | 55 | 282 | 0.9 | 2.6 | 0.00 | 1.78 | 0.38 | 82 | 995.0 |
| 20260507093321 | 54 | 303 | 0.9 | 0.9 | 0.00 | 1.78 | 0.38 | 82 | 994.9 |
| 20260507093221 | 54 | 357 | 0.0 | 0.9 | 0.00 | 1.78 | 0.38 | 84 | 994.9 |
| 20260507093121 | 54 | 330 | 0.0 | 0.9 | 0.00 | 1.78 | 0.38 | 84 | 995.0 |
| 20260507093023 | 54 | 270 | 0.9 | 0.9 | 0.00 | 1.78 | 0.38 | 84 | 995.0 |
| 20260507092923 | 54 | 269 | 0.9 | 1.7 | 0.00 | 1.78 | 0.38 | 84 | 995.0 |
| 20260507092822 | 54 | 258 | 0.0 | 1.7 | 0.00 | 1.78 | 0.38 | 84 | 995.2 |
| 20260507092722 | 54 | 281 | 0.0 | 0.9 | 0.00 | 1.78 | 0.38 | 84 | 995.0 |
| 20260507092622 | 54 | 285 | 0.0 | 1.7 | 0.00 | 1.78 | 0.38 | 83 | 995.0 |
| 20260507092522 | 54 | 270 | 0.0 | 1.7 | 0.00 | 1.78 | 0.38 | 83 | 995.0 |
| 20260507092422 | 54 | 279 | 0.0 | 1.7 | 0.00 | 1.78 | 0.38 | 85 | 995.1 |
| 20260507092323 | 54 | 280 | 0.0 | 0.9 | 0.00 | 1.78 | 0.38 | 86 | 995.1 |
| 20260507092222 | 53 | 270 | 0.0 | 0.9 | 0.00 | 1.78 | 0.38 | 86 | 995.0 |
| 20260507092122 | 53 | 285 | 0.9 | 1.7 | 0.00 | 1.78 | 0.38 | 84 | 995.0 |
| 20260507092022 | 53 | 287 | 0.0 | 1.7 | 0.00 | 1.78 | 0.38 | 86 | 995.1 |
| 20260507091922 | 53 | 270 | 0.9 | 2.6 | 0.00 | 1.78 | 0.38 | 84 | 995.0 |
| 20260507091822 | 53 | 278 | 1.7 | 2.6 | 0.00 | 1.78 | 0.38 | 83 | 995.0 |
| 20260507091722 | 53 | 280 | 0.9 | 2.6 | 0.00 | 1.78 | 0.38 | 85 | 995.1 |
| 20260507091622 | 53 | 270 | 0.9 | 1.7 | 0.00 | 1.78 | 0.38 | 84 | 995.1 |
| 20260507091522 | 53 | 270 | 0.9 | 1.7 | 0.00 | 1.78 | 0.38 | 85 | 995.1 |
| 20260507091422 | 53 | 270 | 0.9 | 1.7 | 0.00 | 1.78 | 0.38 | 86 | 995.1 |
| 20260507091322 | 53 | 299 | 0.9 | 1.7 | 0.00 | 1.78 | 0.38 | 85 | 995.0 |
| 20260507091222 | 53 | 271 | 0.9 | 0.9 | 0.00 | 1.78 | 0.38 | 85 | 995.0 |
| 20260507091122 | 52 | 270 | 0.9 | 1.7 | 0.00 | 1.78 | 0.38 | 85 | 994.9 |
| 20260507091022 | 52 | 281 | 0.9 | 1.7 | 0.00 | 1.78 | 0.38 | 85 | 994.9 |
| 20260507090922 | 52 | 275 | 0.9 | 1.7 | 0.00 | 1.78 | 0.38 | 87 | 994.9 |
| 20260507090822 | 52 | 274 | 0.9 | 1.7 | 0.00 | 1.78 | 0.38 | 86 | 995.0 |
| 20260507090722 | 52 | 292 | 0.9 | 1.7 | 0.00 | 1.78 | 0.38 | 86 | 994.9 |
| 20260507090622 | 52 | 292 | 0.9 | 2.6 | 0.00 | 1.78 | 0.38 | 86 | 994.9 |
| 20260507090522 | 53 | 276 | 0.9 | 2.6 | 0.00 | 1.78 | 0.38 | 87 | 994.7 |
| 20260507090422 | 53 | 248 | 0.9 | 2.6 | 0.00 | 1.78 | 0.38 | 89 | 994.8 |
| 20260507090321 | 53 | 203 | 0.0 | 0.9 | 0.00 | 1.78 | 0.38 | 90 | 994.7 |
| 20260507090221 | 52 | 112 | 0.0 | 0.0 | 0.00 | 1.78 | 0.38 | 91 | 994.7 |
| 20260507090121 | 52 | 112 | 0.0 | 0.0 | 0.00 | 1.78 | 0.38 | 91 | 994.8 |
| 20260507090021 | 52 | 112 | 0.0 | 0.0 | 0.00 | 1.78 | 0.38 | 90 | 994.7 |
| 20260507085921 | 52 | 112 | 0.0 | 0.0 | 0.00 | 1.78 | 0.38 | 90 | 994.7 |
| 20260507085821 | 52 | 112 | 0.0 | 0.0 | 0.00 | 1.78 | 0.38 | 90 | 994.7 |
| 20260507085721 | 52 | 112 | 0.0 | 0.0 | 0.00 | 1.78 | 0.38 | 90 | 994.6 |
| 20260507085621 | 52 | 112 | 0.0 | 0.0 | 0.00 | 1.78 | 0.38 | 90 | 994.6 |
| 20260507085521 | 52 | 112 | 0.0 | 0.0 | 0.00 | 1.78 | 0.38 | 90 | 994.6 |
| 20260507085421 | 52 | 112 | 0.0 | 0.0 | 0.00 | 1.78 | 0.38 | 90 | 994.6 |
| 20260507085321 | 52 | 112 | 0.0 | 0.0 | 0.00 | 1.78 | 0.38 | 90 | 994.5 |
| 20260507085221 | 52 | 112 | 0.0 | 0.0 | 0.00 | 1.78 | 0.38 | 89 | 994.7 |
| 20260507085121 | 52 | 112 | 0.0 | 0.0 | 0.00 | 1.78 | 0.38 | 89 | 994.6 |
| 20260507085021 | 52 | 112 | 0.0 | 0.0 | 0.00 | 1.78 | 0.38 | 88 | 994.6 |
| 20260507084921 | 52 | 112 | 0.0 | 0.0 | 0.00 | 1.78 | 0.38 | 88 | 994.7 |
| 20260507084821 | 52 | 112 | 0.0 | 0.0 | 0.00 | 1.78 | 0.38 | 88 | 994.6 |
| 20260507084721 | 52 | 112 | 0.0 | 0.0 | 0.00 | 1.78 | 0.38 | 88 | 994.6 |
| 20260507084621 | 52 | 112 | 0.0 | 0.0 | 0.00 | 1.78 | 0.38 | 87 | 994.5 |
| 20260507084521 | 52 | 112 | 0.0 | 0.0 | 0.00 | 1.78 | 0.38 | 87 | 994.5 |
| 20260507084421 | 52 | 112 | 0.0 | 0.0 | 0.00 | 1.78 | 0.38 | 87 | 994.6 |
| 20260507084323 | 52 | 112 | 0.0 | 0.0 | 0.00 | 1.78 | 0.38 | 87 | 994.5 |
| 20260507084223 | 52 | 112 | 0.0 | 0.0 | 0.00 | 1.78 | 0.38 | 87 | 994.6 |
| 20260507084123 | 52 | 112 | 0.0 | 0.0 | 0.00 | 1.78 | 0.38 | 88 | 994.7 |
| 20260507084023 | 52 | 112 | 0.0 | 0.0 | 0.00 | 1.78 | 0.38 | 88 | 994.5 |
| 20260507083923 | 52 | 112 | 0.0 | 0.0 | 0.00 | 1.78 | 0.38 | 88 | 994.4 |
| 20260507083822 | 52 | 112 | 0.0 | 0.0 | 0.00 | 1.78 | 0.38 | 87 | 994.5 |
| 20260507083722 | 52 | 112 | 0.0 | 0.0 | 0.00 | 1.78 | 0.38 | 87 | 994.5 |
| 20260507083622 | 52 | 118 | 0.0 | 0.9 | 0.00 | 1.78 | 0.38 | 87 | 994.3 |
| 20260507083522 | 52 | 135 | 0.9 | 0.9 | 0.00 | 1.78 | 0.38 | 87 | 994.4 |
| 20260507083422 | 52 | 122 | 0.9 | 0.9 | 0.00 | 1.78 | 0.38 | 87 | 994.5 |
| 20260507083322 | 52 | 75 | 0.0 | 0.9 | 0.00 | 1.78 | 0.38 | 87 | 994.4 |
| 20260507083222 | 52 | 68 | 0.0 | 0.0 | 0.00 | 1.78 | 0.38 | 87 | 994.3 |
| 20260507083122 | 52 | 68 | 0.0 | 0.9 | 0.00 | 1.78 | 0.38 | 87 | 994.3 |
| 20260507083022 | 52 | 68 | 0.0 | 0.9 | 0.00 | 1.78 | 0.38 | 86 | 994.4 |
| 20260507082922 | 52 | 68 | 0.0 | 0.9 | 0.00 | 1.78 | 0.38 | 86 | 994.4 |
| 20260507082822 | 53 | 68 | 0.0 | 0.9 | 0.00 | 1.78 | 0.38 | 86 | 994.3 |
| 20260507082722 | 53 | 68 | 0.0 | 0.9 | 0.00 | 1.78 | 0.38 | 86 | 994.4 |
| 20260507082622 | 53 | 68 | 0.0 | 0.9 | 0.00 | 1.78 | 0.38 | 87 | 994.4 |
| 20260507082522 | 53 | 11 | 0.0 | 0.9 | 0.00 | 1.78 | 0.38 | 88 | 994.2 |
| 20260507082422 | 53 | 292 | 0.0 | 0.0 | 0.00 | 1.78 | 0.38 | 88 | 994.2 |
| 20260507082322 | 53 | 292 | 0.0 | 0.0 | 0.00 | 1.78 | 0.38 | 88 | 994.3 |
| 20260507082222 | 53 | 292 | 0.0 | 0.0 | 0.00 | 1.78 | 0.38 | 87 | 994.4 |
| 20260507082122 | 53 | 292 | 0.0 | 0.0 | 0.00 | 1.78 | 0.38 | 86 | 994.2 |
| 20260507082022 | 53 | 292 | 0.0 | 0.0 | 0.00 | 1.78 | 0.38 | 86 | 994.4 |
| 20260507081922 | 53 | 284 | 0.0 | 0.9 | 0.00 | 1.78 | 0.38 | 87 | 994.3 |
| 20260507081822 | 53 | 141 | 0.0 | 0.9 | 0.00 | 1.78 | 0.38 | 85 | 994.2 |
| 20260507081722 | 53 | 94 | 0.0 | 0.9 | 0.00 | 1.78 | 0.38 | 86 | 994.2 |
| 20260507081622 | 53 | 90 | 0.0 | 0.0 | 0.00 | 1.78 | 0.38 | 86 | 994.3 |
| 20260507081521 | 53 | 90 | 0.0 | 0.0 | 0.00 | 1.78 | 0.38 | 86 | 994.2 |
| 20260507081421 | 53 | 90 | 0.0 | 0.0 | 0.00 | 1.78 | 0.38 | 85 | 994.2 |
| 20260507081321 | 53 | 99 | 0.0 | 0.9 | 0.00 | 1.78 | 0.38 | 84 | 994.2 |
| 20260507081221 | 53 | 132 | 0.0 | 0.0 | 0.00 | 1.78 | 0.38 | 85 | 994.2 |
| 20260507081121 | 53 | 112 | 0.0 | 0.0 | 0.00 | 1.78 | 0.38 | 85 | 994.2 |
| 20260507081021 | 53 | 112 | 0.0 | 0.0 | 0.00 | 1.78 | 0.38 | 84 | 994.1 |
| 20260507080921 | 53 | 112 | 0.0 | 0.9 | 0.00 | 1.78 | 0.38 | 85 | 994.2 |
| 20260507080821 | 53 | 104 | 0.9 | 0.9 | 0.00 | 1.78 | 0.38 | 85 | 994.3 |
| 20260507080721 | 53 | 46 | 0.9 | 0.9 | 0.00 | 1.78 | 0.38 | 85 | 994.2 |
| 20260507080621 | 53 | 225 | 0.0 | 0.9 | 0.00 | 1.78 | 0.38 | 86 | 994.2 |
| 20260507080521 | 53 | 225 | 0.0 | 0.0 | 0.00 | 1.78 | 0.38 | 86 | 994.2 |
| 20260507080421 | 53 | 228 | 0.0 | 0.9 | 0.00 | 1.78 | 0.38 | 85 | 994.3 |
| 20260507080321 | 53 | 248 | 0.0 | 0.9 | 0.00 | 1.78 | 0.38 | 87 | 994.2 |
| 20260507080221 | 53 | 248 | 0.0 | 0.9 | 0.00 | 1.78 | 0.38 | 87 | 994.3 |
| 20260507080121 | 53 | 261 | 0.0 | 0.9 | 0.00 | 1.78 | 0.38 | 87 | 994.1 |
| 20260507080021 | 53 | 112 | 0.9 | 0.9 | 0.00 | 1.78 | 0.38 | 86 | 994.1 |
| 20260507075923 | 53 | 112 | 0.0 | 0.9 | 0.00 | 1.78 | 0.38 | 86 | 994.2 |
| 20260507075823 | 53 | 112 | 0.0 | 0.0 | 0.00 | 1.78 | 0.38 | 86 | 994.3 |
| 20260507075723 | 52 | 112 | 0.0 | 0.0 | 0.00 | 1.78 | 0.38 | 87 | 994.3 |
| 20260507075623 | 52 | 112 | 0.0 | 0.0 | 0.00 | 1.78 | 0.38 | 87 | 994.3 |
| 20260507075522 | 52 | 112 | 0.0 | 0.0 | 0.00 | 1.78 | 0.38 | 87 | 994.2 |
| 20260507075423 | 52 | 112 | 0.0 | 0.0 | 0.00 | 1.78 | 0.38 | 87 | 994.1 |
| 20260507075322 | 52 | 112 | 0.0 | 0.0 | 0.00 | 1.78 | 0.38 | 86 | 994.1 |
| 20260507075222 | 52 | 112 | 0.0 | 0.9 | 0.00 | 1.78 | 0.38 | 86 | 994.2 |
| 20260507075122 | 52 | 112 | 0.0 | 0.9 | 0.00 | 1.78 | 0.38 | 88 | 994.1 |
| 20260507075022 | 52 | 112 | 0.0 | 0.0 | 0.00 | 1.78 | 0.38 | 88 | 994.2 |
| 20260507074923 | 52 | 112 | 0.0 | 0.0 | 0.00 | 1.78 | 0.38 | 88 | 994.2 |
| 20260507074822 | 52 | 112 | 0.0 | 0.0 | 0.00 | 1.78 | 0.38 | 88 | 994.2 |
| 20260507074722 | 52 | 112 | 0.0 | 0.0 | 0.00 | 1.78 | 0.38 | 88 | 994.2 |
| 20260507074622 | 52 | 112 | 0.0 | 0.0 | 0.00 | 1.78 | 0.38 | 88 | 994.0 |
| 20260507074522 | 52 | 112 | 0.0 | 0.0 | 0.00 | 1.78 | 0.38 | 88 | 994.2 |
| 20260507074422 | 52 | 112 | 0.0 | 0.9 | 0.00 | 1.78 | 0.38 | 88 | 994.2 |
| 20260507074322 | 52 | 112 | 0.0 | 1.7 | 0.00 | 1.78 | 0.38 | 88 | 994.0 |
| 20260507074222 | 52 | 234 | 0.0 | 1.7 | 0.00 | 1.78 | 0.38 | 89 | 994.0 |
| 20260507074122 | 52 | 248 | 0.0 | 0.0 | 0.00 | 1.78 | 0.38 | 89 | 994.1 |
| 20260507074022 | 52 | 248 | 0.0 | 0.9 | 0.00 | 1.78 | 0.38 | 89 | 994.1 |
| 20260507073922 | 52 | 202 | 0.0 | 0.9 | 0.00 | 1.78 | 0.38 | 88 | 994.1 |
| 20260507073822 | 51 | 112 | 0.0 | 0.9 | 0.00 | 1.78 | 0.38 | 89 | 994.0 |
| 20260507073722 | 51 | 112 | 0.0 | 0.0 | 0.00 | 1.78 | 0.38 | 89 | 994.0 |
| 20260507073622 | 51 | 112 | 0.0 | 0.0 | 0.00 | 1.78 | 0.38 | 89 | 993.9 |
| 20260507073522 | 51 | 112 | 0.0 | 0.0 | 0.00 | 1.78 | 0.38 | 89 | 994.0 |
| 20260507073422 | 51 | 112 | 0.0 | 0.0 | 0.00 | 1.78 | 0.38 | 88 | 994.1 |
| 20260507073322 | 51 | 112 | 0.0 | 0.0 | 0.00 | 1.78 | 0.38 | 89 | 994.0 |
| 20260507073222 | 51 | 112 | 0.0 | 0.9 | 0.00 | 1.78 | 0.38 | 88 | 994.1 |
| 20260507073122 | 51 | 112 | 0.0 | 0.0 | 0.00 | 1.78 | 0.38 | 88 | 994.3 |
| 20260507073022 | 51 | 112 | 0.0 | 0.0 | 0.00 | 1.78 | 0.38 | 88 | 994.1 |
| 20260507072921 | 51 | 112 | 0.0 | 0.0 | 0.00 | 1.78 | 0.38 | 88 | 994.0 |
| 20260507072821 | 51 | 112 | 0.0 | 0.0 | 0.00 | 1.78 | 0.38 | 88 | 994.1 |
| 20260507072721 | 51 | 112 | 0.0 | 0.0 | 0.00 | 1.78 | 0.38 | 89 | 994.1 |
| 20260507072621 | 51 | 112 | 0.0 | 0.0 | 0.00 | 1.78 | 0.38 | 89 | 994.0 |
| 20260507072521 | 51 | 112 | 0.0 | 0.0 | 0.00 | 1.78 | 0.38 | 89 | 994.0 |
| 20260507072421 | 51 | 112 | 0.0 | 0.0 | 0.00 | 1.78 | 0.38 | 89 | 994.0 |
| 20260507072321 | 51 | 112 | 0.0 | 0.0 | 0.00 | 1.78 | 0.38 | 89 | 994.1 |
| 20260507072221 | 51 | 112 | 0.0 | 0.0 | 0.00 | 1.78 | 0.38 | 89 | 994.0 |
| 20260507072121 | 51 | 112 | 0.0 | 0.0 | 0.00 | 1.78 | 0.38 | 89 | 993.9 |
| 20260507072021 | 51 | 112 | 0.0 | 0.0 | 0.00 | 1.78 | 0.38 | 89 | 994.0 |
| 20260507071921 | 51 | 112 | 0.0 | 0.0 | 0.00 | 1.78 | 0.38 | 89 | 993.9 |
| 20260507071821 | 51 | 112 | 0.0 | 0.0 | 0.00 | 1.78 | 0.38 | 89 | 993.8 |
| 20260507071721 | 51 | 112 | 0.0 | 0.0 | 0.00 | 1.78 | 0.38 | 89 | 993.9 |
| 20260507071621 | 51 | 112 | 0.0 | 0.0 | 0.00 | 1.78 | 0.38 | 89 | 993.9 |
| 20260507071521 | 51 | 112 | 0.0 | 0.0 | 0.00 | 1.78 | 0.38 | 89 | 993.9 |
| 20260507071421 | 51 | 112 | 0.0 | 0.0 | 0.00 | 1.78 | 0.38 | 89 | 993.7 |
| 20260507071321 | 51 | 112 | 0.0 | 0.0 | 0.00 | 1.78 | 0.38 | 89 | 993.8 |
| 20260507071221 | 51 | 112 | 0.0 | 0.0 | 0.00 | 1.78 | 0.38 | 89 | 993.9 |
| 20260507071121 | 51 | 112 | 0.0 | 0.0 | 0.00 | 1.78 | 0.38 | 90 | 994.0 |
| 20260507071021 | 51 | 112 | 0.0 | 0.0 | 0.00 | 1.78 | 0.38 | 89 | 993.9 |
| 20260507070921 | 51 | 112 | 0.0 | 0.0 | 0.00 | 1.78 | 0.38 | 89 | 993.9 |
| 20260507070821 | 51 | 112 | 0.0 | 0.0 | 0.00 | 1.78 | 0.38 | 89 | 993.9 |
| 20260507070721 | 51 | 112 | 0.0 | 0.0 | 0.00 | 1.78 | 0.38 | 89 | 993.9 |
| 20260507070623 | 51 | 112 | 0.0 | 0.0 | 0.00 | 1.78 | 0.38 | 89 | 993.8 |
| 20260507070523 | 51 | 112 | 0.0 | 0.0 | 0.00 | 1.78 | 0.38 | 89 | 993.7 |
| 20260507070423 | 51 | 112 | 0.0 | 0.0 | 0.00 | 1.78 | 0.38 | 89 | 993.8 |
| 20260507070323 | 51 | 112 | 0.0 | 0.0 | 0.00 | 1.78 | 0.38 | 90 | 993.7 |
| 20260507070222 | 51 | 112 | 0.0 | 0.0 | 0.00 | 1.78 | 0.38 | 90 | 993.7 |
| 20260507070122 | 51 | 112 | 0.0 | 0.0 | 0.00 | 1.78 | 0.38 | 90 | 993.9 |
| 20260507070022 | 51 | 112 | 0.0 | 0.0 | 0.00 | 1.78 | 0.38 | 90 | 993.8 |
| 20260507065922 | 50 | 112 | 0.0 | 0.0 | 0.00 | 1.78 | 0.38 | 90 | 993.9 |
| 20260507065822 | 50 | 112 | 0.0 | 0.0 | 0.00 | 1.78 | 0.38 | 89 | 993.7 |
| 20260507065722 | 50 | 112 | 0.0 | 0.0 | 0.00 | 1.78 | 0.38 | 90 | 993.8 |
| 20260507065622 | 51 | 112 | 0.0 | 0.0 | 0.00 | 1.78 | 0.38 | 90 | 993.7 |
| 20260507065522 | 51 | 112 | 0.0 | 0.9 | 0.00 | 1.78 | 0.38 | 90 | 993.8 |
| 20260507065422 | 51 | 112 | 0.0 | 0.9 | 0.00 | 1.78 | 0.38 | 90 | 993.7 |
| 20260507065322 | 51 | 112 | 0.0 | 0.9 | 0.00 | 1.78 | 0.38 | 90 | 993.6 |
| 20260507065222 | 51 | 112 | 0.0 | 0.9 | 0.00 | 1.78 | 0.38 | 90 | 993.7 |
| 20260507065122 | 51 | 112 | 0.0 | 0.9 | 0.00 | 1.78 | 0.38 | 90 | 993.6 |
| 20260507065022 | 51 | 112 | 0.0 | 0.9 | 0.00 | 1.78 | 0.38 | 90 | 993.8 |
| 20260507064922 | 51 | 112 | 0.9 | 0.9 | 0.00 | 1.78 | 0.38 | 90 | 993.8 |
| 20260507064822 | 51 | 112 | 0.0 | 0.9 | 0.00 | 1.78 | 0.38 | 90 | 993.8 |
| 20260507064722 | 51 | 112 | 0.0 | 0.0 | 0.00 | 1.78 | 0.38 | 90 | 993.8 |
| 20260507064622 | 51 | 112 | 0.0 | 0.0 | 0.00 | 1.78 | 0.38 | 90 | 993.8 |
| 20260507064522 | 51 | 112 | 0.0 | 0.0 | 0.00 | 1.78 | 0.38 | 90 | 993.7 |
| 20260507064422 | 51 | 112 | 0.0 | 0.0 | 0.00 | 1.78 | 0.38 | 90 | 993.6 |
| 20260507064322 | 51 | 112 | 0.0 | 0.0 | 0.00 | 1.78 | 0.38 | 89 | 993.7 |
| 20260507064222 | 51 | 122 | 0.0 | 0.0 | 0.00 | 1.78 | 0.38 | 89 | 993.7 |
| 20260507064122 | 51 | 135 | 0.0 | 0.0 | 0.00 | 1.78 | 0.38 | 89 | 993.6 |
| 20260507064022 | 50 | 135 | 0.0 | 0.0 | 0.00 | 1.78 | 0.38 | 88 | 993.8 |
| 20260507063922 | 50 | 135 | 0.0 | 0.9 | 0.00 | 1.78 | 0.38 | 88 | 993.6 |
| 20260507063822 | 50 | 145 | 0.9 | 0.9 | 0.00 | 1.78 | 0.38 | 88 | 993.6 |
| 20260507063722 | 50 | 158 | 0.9 | 0.9 | 0.00 | 1.78 | 0.38 | 88 | 993.7 |
| 20260507063622 | 50 | 158 | 0.0 | 0.9 | 0.00 | 1.78 | 0.38 | 89 | 993.7 |
| 20260507063522 | 50 | 146 | 0.0 | 0.9 | 0.00 | 1.78 | 0.38 | 89 | 993.7 |
| 20260507063422 | 50 | 125 | 0.0 | 0.0 | 0.00 | 1.78 | 0.38 | 89 | 993.7 |
| 20260507063321 | 50 | 128 | 0.0 | 0.9 | 0.00 | 1.78 | 0.38 | 89 | 993.6 |
| 20260507063221 | 50 | 135 | 0.9 | 0.9 | 0.00 | 1.78 | 0.38 | 89 | 993.6 |
| 20260507063121 | 50 | 135 | 0.9 | 0.9 | 0.00 | 1.78 | 0.38 | 89 | 993.6 |
| 20260507063021 | 50 | 150 | 0.9 | 1.7 | 0.00 | 1.78 | 0.38 | 89 | 993.6 |
| 20260507062921 | 50 | 145 | 0.9 | 1.7 | 0.00 | 1.78 | 0.38 | 90 | 993.6 |
| 20260507062821 | 50 | 112 | 0.0 | 0.9 | 0.00 | 1.78 | 0.38 | 91 | 993.7 |
| 20260507062721 | 50 | 112 | 0.0 | 0.9 | 0.00 | 1.78 | 0.38 | 91 | 993.6 |
| 20260507062621 | 50 | 120 | 0.0 | 0.9 | 0.00 | 1.78 | 0.38 | 91 | 993.6 |
| 20260507062521 | 50 | 135 | 0.9 | 0.9 | 0.00 | 1.78 | 0.38 | 90 | 993.6 |
| 20260507062421 | 50 | 135 | 0.0 | 0.9 | 0.00 | 1.78 | 0.38 | 90 | 993.6 |
| 20260507062321 | 50 | 135 | 0.9 | 0.9 | 0.00 | 1.78 | 0.38 | 90 | 993.7 |
| 20260507062221 | 50 | 135 | 0.9 | 0.9 | 0.00 | 1.78 | 0.38 | 90 | 993.6 |
| 20260507062121 | 50 | 118 | 0.0 | 0.9 | 0.00 | 1.78 | 0.38 | 91 | 993.6 |
| 20260507062021 | 50 | 134 | 0.0 | 0.9 | 0.00 | 1.78 | 0.38 | 91 | 993.5 |
| 20260507061921 | 50 | 135 | 0.0 | 0.9 | 0.00 | 1.78 | 0.38 | 90 | 993.4 |
| 20260507061821 | 50 | 135 | 0.0 | 0.9 | 0.00 | 1.78 | 0.38 | 90 | 993.3 |
| 20260507061721 | 50 | 135 | 0.9 | 0.9 | 0.00 | 1.78 | 0.38 | 90 | 993.4 |
| 20260507061621 | 50 | 124 | 0.0 | 0.9 | 0.00 | 1.78 | 0.38 | 90 | 993.6 |
| 20260507061521 | 50 | 112 | 0.0 | 0.9 | 0.00 | 1.78 | 0.38 | 90 | 993.5 |
| 20260507061421 | 50 | 112 | 0.0 | 0.9 | 0.00 | 1.78 | 0.38 | 90 | 993.4 |
| 20260507061321 | 50 | 112 | 0.0 | 0.9 | 0.00 | 1.78 | 0.38 | 91 | 993.5 |
| 20260507061221 | 50 | 120 | 0.9 | 0.9 | 0.00 | 1.78 | 0.38 | 90 | 993.3 |
| 20260507061121 | 50 | 135 | 0.9 | 0.9 | 0.00 | 1.78 | 0.38 | 90 | 993.4 |
| 20260507061021 | 50 | 135 | 0.9 | 0.9 | 0.00 | 1.78 | 0.38 | 90 | 993.5 |
| 20260507060923 | 50 | 150 | 0.9 | 0.9 | 0.00 | 1.78 | 0.38 | 90 | 993.4 |
| 20260507060823 | 50 | 124 | 0.0 | 0.9 | 0.00 | 1.78 | 0.38 | 90 | 993.4 |
| 20260507060723 | 50 | 112 | 0.0 | 0.9 | 0.00 | 1.78 | 0.38 | 90 | 993.5 |
| 20260507060623 | 50 | 120 | 0.0 | 0.9 | 0.00 | 1.78 | 0.38 | 90 | 993.5 |
| 20260507060522 | 50 | 135 | 0.9 | 0.9 | 0.00 | 1.78 | 0.38 | 90 | 993.4 |
| 20260507060422 | 50 | 127 | 0.9 | 0.9 | 0.01 | 1.78 | 0.38 | 90 | 993.4 |
| 20260507060322 | 50 | 112 | 0.9 | 0.9 | 0.01 | 1.78 | 0.38 | 90 | 993.3 |
| 20260507060222 | 50 | 123 | 0.9 | 0.9 | 0.01 | 1.78 | 0.38 | 90 | 993.4 |
| 20260507060122 | 50 | 135 | 0.9 | 1.7 | 0.01 | 1.78 | 0.38 | 90 | 993.3 |
| 20260507060022 | 50 | 128 | 0.9 | 1.7 | 0.01 | 1.78 | 0.38 | 90 | 993.4 |
| 20260507055922 | 50 | 116 | 0.0 | 0.9 | 0.01 | 1.78 | 0.38 | 91 | 993.5 |
| 20260507055822 | 50 | 146 | 0.9 | 0.9 | 0.01 | 1.78 | 0.38 | 90 | 993.4 |
| 20260507055722 | 50 | 156 | 0.9 | 1.7 | 0.01 | 1.78 | 0.38 | 90 | 993.4 |
| 20260507055622 | 50 | 135 | 0.9 | 1.7 | 0.01 | 1.78 | 0.38 | 90 | 993.3 |
| 20260507055522 | 50 | 135 | 0.9 | 0.9 | 0.01 | 1.78 | 0.38 | 90 | 993.3 |
| 20260507055422 | 50 | 135 | 0.9 | 0.9 | 0.01 | 1.78 | 0.38 | 90 | 993.3 |
| 20260507055322 | 50 | 135 | 0.9 | 0.9 | 0.01 | 1.78 | 0.38 | 90 | 993.4 |
| 20260507055222 | 50 | 135 | 0.9 | 0.9 | 0.01 | 1.78 | 0.38 | 90 | 993.4 |
| 20260507055122 | 50 | 135 | 0.9 | 0.9 | 0.01 | 1.78 | 0.38 | 90 | 993.4 |
| 20260507055022 | 50 | 151 | 0.9 | 0.9 | 0.01 | 1.78 | 0.38 | 90 | 993.3 |
| 20260507054922 | 50 | 142 | 0.9 | 0.9 | 0.01 | 1.78 | 0.38 | 89 | 993.2 |
| 20260507054822 | 50 | 135 | 0.9 | 0.9 | 0.01 | 1.78 | 0.38 | 89 | 993.4 |
| 20260507054722 | 49 | 135 | 0.9 | 1.7 | 0.01 | 1.78 | 0.38 | 89 | 993.3 |
| 20260507054622 | 49 | 146 | 0.9 | 1.7 | 0.01 | 1.78 | 0.38 | 89 | 993.4 |
| 20260507054522 | 49 | 158 | 0.9 | 1.7 | 0.01 | 1.78 | 0.38 | 88 | 993.5 |
| 20260507054422 | 49 | 158 | 0.9 | 1.7 | 0.01 | 1.78 | 0.38 | 89 | 993.3 |
| 20260507054322 | 49 | 158 | 0.9 | 0.9 | 0.01 | 1.78 | 0.38 | 90 | 993.2 |
| 20260507054222 | 49 | 158 | 0.9 | 1.7 | 0.01 | 1.78 | 0.38 | 90 | 993.4 |
| 20260507054122 | 49 | 141 | 0.9 | 1.7 | 0.01 | 1.78 | 0.38 | 90 | 993.4 |
| 20260507054021 | 49 | 135 | 0.0 | 0.9 | 0.01 | 1.78 | 0.38 | 90 | 993.4 |
| 20260507053922 | 49 | 135 | 0.0 | 0.9 | 0.01 | 1.78 | 0.38 | 90 | 993.3 |
| 20260507053821 | 49 | 135 | 0.9 | 0.9 | 0.01 | 1.78 | 0.38 | 91 | 993.2 |
| 20260507053721 | 49 | 152 | 0.9 | 0.9 | 0.01 | 1.78 | 0.38 | 91 | 993.3 |
| 20260507053621 | 49 | 158 | 0.0 | 0.9 | 0.02 | 1.78 | 0.38 | 91 | 993.3 |
| 20260507053521 | 49 | 158 | 0.0 | 0.0 | 0.02 | 1.78 | 0.38 | 91 | 993.2 |
| 20260507053421 | 49 | 158 | 0.0 | 0.0 | 0.02 | 1.78 | 0.38 | 91 | 993.1 |
| 20260507053321 | 49 | 158 | 0.0 | 0.0 | 0.02 | 1.78 | 0.38 | 91 | 993.1 |
| 20260507053221 | 49 | 158 | 0.0 | 0.0 | 0.02 | 1.78 | 0.38 | 91 | 993.3 |
| 20260507053121 | 49 | 158 | 0.0 | 0.0 | 0.02 | 1.78 | 0.38 | 91 | 993.2 |
| 20260507053021 | 49 | 158 | 0.0 | 0.0 | 0.02 | 1.78 | 0.38 | 91 | 993.2 |
| 20260507052921 | 49 | 158 | 0.0 | 0.9 | 0.02 | 1.78 | 0.38 | 91 | 993.1 |
| 20260507052821 | 49 | 158 | 0.0 | 0.9 | 0.02 | 1.78 | 0.38 | 91 | 993.2 |
| 20260507052721 | 49 | 158 | 0.9 | 0.9 | 0.02 | 1.78 | 0.38 | 91 | 993.3 |
| 20260507052621 | 49 | 158 | 0.9 | 0.9 | 0.02 | 1.78 | 0.38 | 91 | 993.3 |
| 20260507052521 | 49 | 158 | 0.0 | 0.9 | 0.02 | 1.78 | 0.38 | 91 | 993.1 |
| 20260507052421 | 49 | 158 | 0.0 | 0.9 | 0.02 | 1.78 | 0.38 | 91 | 993.1 |
| 20260507052321 | 49 | 158 | 0.0 | 0.9 | 0.02 | 1.78 | 0.38 | 91 | 993.1 |
| 20260507052221 | 49 | 158 | 0.9 | 0.9 | 0.02 | 1.78 | 0.38 | 91 | 993.2 |
| 20260507052121 | 49 | 158 | 0.0 | 0.9 | 0.02 | 1.78 | 0.38 | 91 | 993.2 |
| 20260507052021 | 49 | 158 | 0.0 | 0.0 | 0.02 | 1.78 | 0.38 | 91 | 993.0 |
| 20260507051921 | 49 | 158 | 0.0 | 0.0 | 0.02 | 1.78 | 0.38 | 91 | 993.1 |
| 20260507051821 | 49 | 158 | 0.0 | 0.0 | 0.02 | 1.78 | 0.38 | 91 | 993.1 |
| 20260507051721 | 49 | 158 | 0.0 | 0.0 | 0.02 | 1.78 | 0.38 | 91 | 993.1 |
| 20260507051621 | 49 | 158 | 0.0 | 0.9 | 0.02 | 1.78 | 0.38 | 91 | 993.1 |
| 20260507051521 | 49 | 158 | 0.0 | 0.9 | 0.02 | 1.78 | 0.38 | 91 | 993.2 |
| 20260507051421 | 49 | 158 | 0.0 | 0.9 | 0.04 | 1.78 | 0.38 | 91 | 993.0 |
| 20260507051321 | 49 | 158 | 0.0 | 0.9 | 0.04 | 1.78 | 0.38 | 91 | 993.0 |
| 20260507051221 | 49 | 158 | 0.9 | 0.9 | 0.04 | 1.78 | 0.38 | 91 | 993.0 |
| 20260507051123 | 49 | 158 | 0.9 | 0.9 | 0.04 | 1.78 | 0.38 | 91 | 993.1 |
| 20260507051023 | 49 | 158 | 0.9 | 0.9 | 0.04 | 1.78 | 0.38 | 91 | 993.0 |
| 20260507050923 | 49 | 158 | 0.9 | 0.9 | 0.04 | 1.78 | 0.38 | 91 | 993.1 |
| 20260507050823 | 49 | 158 | 0.9 | 0.9 | 0.04 | 1.78 | 0.38 | 91 | 993.0 |
| 20260507050722 | 49 | 158 | 0.9 | 0.9 | 0.04 | 1.78 | 0.38 | 91 | 992.9 |
| 20260507050622 | 49 | 158 | 0.9 | 0.9 | 0.04 | 1.78 | 0.38 | 91 | 992.9 |
| 20260507050522 | 49 | 158 | 0.9 | 1.7 | 0.04 | 1.78 | 0.38 | 91 | 993.0 |
| 20260507050422 | 49 | 160 | 0.9 | 0.9 | 0.02 | 1.77 | 0.37 | 91 | 993.0 |
| 20260507050322 | 49 | 180 | 0.9 | 0.9 | 0.02 | 1.77 | 0.37 | 91 | 992.9 |
| 20260507050222 | 49 | 180 | 0.9 | 0.9 | 0.02 | 1.77 | 0.37 | 91 | 992.9 |
| 20260507050122 | 49 | 180 | 0.0 | 0.9 | 0.02 | 1.77 | 0.37 | 91 | 993.0 |
| 20260507050022 | 49 | 180 | 0.0 | 0.0 | 0.02 | 1.77 | 0.37 | 91 | 993.0 |
| 20260507045922 | 49 | 180 | 0.0 | 0.0 | 0.02 | 1.77 | 0.37 | 91 | 993.0 |
| 20260507045822 | 49 | 180 | 0.0 | 0.0 | 0.02 | 1.77 | 0.37 | 91 | 992.9 |
| 20260507045722 | 49 | 180 | 0.0 | 0.0 | 0.02 | 1.77 | 0.37 | 91 | 992.8 |
| 20260507045622 | 49 | 180 | 0.0 | 0.0 | 0.02 | 1.77 | 0.37 | 91 | 992.9 |
| 20260507045522 | 49 | 180 | 0.0 | 0.0 | 0.02 | 1.77 | 0.37 | 92 | 992.9 |
| 20260507045422 | 49 | 180 | 0.0 | 0.0 | 0.02 | 1.77 | 0.37 | 92 | 992.8 |
| 20260507045322 | 49 | 180 | 0.0 | 0.9 | 0.02 | 1.77 | 0.37 | 92 | 992.9 |
| 20260507045222 | 49 | 180 | 0.0 | 0.9 | 0.02 | 1.77 | 0.37 | 92 | 992.9 |
| 20260507045122 | 49 | 180 | 0.0 | 0.9 | 0.02 | 1.77 | 0.37 | 91 | 992.9 |
| 20260507045022 | 49 | 180 | 0.0 | 0.0 | 0.02 | 1.77 | 0.37 | 92 | 992.8 |
| 20260507044922 | 49 | 180 | 0.0 | 0.0 | 0.02 | 1.77 | 0.37 | 92 | 992.9 |
| 20260507044822 | 49 | 180 | 0.0 | 0.0 | 0.02 | 1.77 | 0.37 | 92 | 992.8 |
| 20260507044722 | 49 | 180 | 0.0 | 0.0 | 0.02 | 1.77 | 0.37 | 92 | 992.7 |
| 20260507044621 | 49 | 180 | 0.0 | 0.0 | 0.02 | 1.77 | 0.37 | 92 | 992.8 |
| 20260507044521 | 49 | 180 | 0.0 | 0.0 | 0.02 | 1.77 | 0.37 | 92 | 992.8 |
| 20260507044421 | 49 | 180 | 0.0 | 0.9 | 0.02 | 1.77 | 0.37 | 92 | 992.8 |
| 20260507044321 | 49 | 180 | 0.0 | 0.9 | 0.02 | 1.77 | 0.37 | 92 | 992.8 |
| 20260507044221 | 49 | 180 | 0.0 | 0.9 | 0.02 | 1.77 | 0.37 | 92 | 992.8 |
| 20260507044121 | 49 | 180 | 0.0 | 0.0 | 0.02 | 1.77 | 0.37 | 92 | 992.7 |
| 20260507044021 | 49 | 180 | 0.0 | 0.0 | 0.02 | 1.77 | 0.37 | 92 | 992.8 |
| 20260507043921 | 49 | 180 | 0.0 | 0.0 | 0.02 | 1.77 | 0.37 | 92 | 992.7 |
| 20260507043821 | 49 | 180 | 0.0 | 0.0 | 0.02 | 1.77 | 0.37 | 92 | 992.8 |
| 20260507043721 | 49 | 180 | 0.0 | 0.0 | 0.02 | 1.77 | 0.37 | 92 | 992.8 |
| 20260507043621 | 49 | 180 | 0.0 | 0.0 | 0.02 | 1.76 | 0.35 | 92 | 992.7 |
| 20260507043521 | 49 | 180 | 0.0 | 0.0 | 0.02 | 1.76 | 0.35 | 92 | 992.7 |
| 20260507043421 | 49 | 180 | 0.0 | 0.0 | 0.02 | 1.76 | 0.35 | 92 | 992.7 |
| 20260507043321 | 49 | 180 | 0.0 | 0.0 | 0.02 | 1.76 | 0.35 | 92 | 992.7 |
| 20260507043221 | 50 | 180 | 0.0 | 0.0 | 0.02 | 1.76 | 0.35 | 92 | 992.7 |
| 20260507043121 | 50 | 180 | 0.0 | 0.0 | 0.02 | 1.76 | 0.35 | 92 | 992.6 |
| 20260507043021 | 50 | 180 | 0.0 | 0.9 | 0.02 | 1.76 | 0.35 | 92 | 992.5 |
| 20260507042921 | 50 | 180 | 0.0 | 0.9 | 0.02 | 1.76 | 0.35 | 92 | 992.6 |
| 20260507042821 | 49 | 180 | 0.0 | 0.9 | 0.02 | 1.76 | 0.35 | 92 | 992.7 |
| 20260507042723 | 49 | 180 | 0.0 | 0.9 | 0.02 | 1.76 | 0.35 | 92 | 992.7 |
| 20260507042623 | 49 | 180 | 0.0 | 0.9 | 0.02 | 1.76 | 0.35 | 92 | 992.6 |
| 20260507042523 | 49 | 260 | 0.0 | 0.0 | 0.02 | 1.76 | 0.35 | 92 | 992.5 |
| 20260507042423 | 49 | 261 | 0.0 | 0.0 | 0.02 | 1.76 | 0.35 | 92 | 992.6 |
| 20260507042323 | 49 | 180 | 0.0 | 0.0 | 0.02 | 1.76 | 0.35 | 92 | 992.7 |
| 20260507042223 | 49 | 180 | 0.0 | 0.0 | 0.02 | 1.76 | 0.35 | 92 | 992.5 |
| 20260507042122 | 49 | 180 | 0.0 | 0.0 | 0.02 | 1.76 | 0.35 | 92 | 992.5 |
| 20260507042023 | 49 | 180 | 0.0 | 0.0 | 0.02 | 1.76 | 0.35 | 92 | 992.5 |
| 20260507041922 | 49 | 180 | 0.0 | 0.0 | 0.02 | 1.76 | 0.35 | 92 | 992.5 |
| 20260507041823 | 49 | 180 | 0.0 | 0.0 | 0.02 | 1.76 | 0.35 | 92 | 992.5 |
| 20260507041722 | 50 | 180 | 0.0 | 0.0 | 0.02 | 1.76 | 0.35 | 92 | 992.6 |
| 20260507041622 | 50 | 180 | 0.0 | 0.0 | 0.02 | 1.76 | 0.35 | 92 | 992.6 |
| 20260507041522 | 49 | 180 | 0.0 | 0.0 | 0.02 | 1.76 | 0.35 | 92 | 992.6 |
| 20260507041422 | 49 | 180 | 0.0 | 0.0 | 0.02 | 1.75 | 0.34 | 92 | 992.5 |
| 20260507041322 | 49 | 180 | 0.0 | 0.0 | 0.02 | 1.75 | 0.34 | 92 | 992.5 |
| 20260507041222 | 49 | 180 | 0.0 | 0.9 | 0.02 | 1.75 | 0.34 | 92 | 992.6 |
| 20260507041122 | 49 | 188 | 0.0 | 0.9 | 0.02 | 1.75 | 0.34 | 92 | 992.6 |
| 20260507041022 | 49 | 218 | 0.0 | 0.9 | 0.02 | 1.75 | 0.34 | 92 | 992.6 |
| 20260507040922 | 49 | 284 | 0.0 | 0.0 | 0.02 | 1.75 | 0.34 | 92 | 992.3 |
| 20260507040822 | 49 | 292 | 0.0 | 0.0 | 0.02 | 1.75 | 0.34 | 92 | 992.4 |
| 20260507040722 | 49 | 292 | 0.0 | 0.0 | 0.02 | 1.75 | 0.34 | 92 | 992.4 |
| 20260507040622 | 49 | 292 | 0.0 | 0.0 | 0.02 | 1.75 | 0.34 | 92 | 992.5 |
| 20260507040522 | 49 | 292 | 0.0 | 0.0 | 0.02 | 1.75 | 0.34 | 92 | 992.4 |
| 20260507040422 | 49 | 292 | 0.0 | 0.0 | 0.02 | 1.75 | 0.34 | 92 | 992.3 |
| 20260507040322 | 49 | 292 | 0.0 | 0.0 | 0.02 | 1.75 | 0.34 | 92 | 992.4 |
| 20260507040222 | 49 | 292 | 0.0 | 0.0 | 0.02 | 1.75 | 0.34 | 92 | 992.3 |
| 20260507040122 | 49 | 292 | 0.0 | 0.0 | 0.02 | 1.75 | 0.34 | 92 | 992.7 |
| 20260507040022 | 49 | 292 | 0.0 | 0.0 | 0.02 | 1.75 | 0.34 | 92 | 992.4 |
| 20260507035922 | 49 | 292 | 0.0 | 0.0 | 0.02 | 1.75 | 0.34 | 92 | 992.4 |
| 20260507035822 | 49 | 292 | 0.0 | 0.0 | 0.02 | 1.75 | 0.34 | 92 | 992.5 |
| 20260507035722 | 49 | 292 | 0.0 | 0.0 | 0.02 | 1.75 | 0.34 | 92 | 992.4 |
| 20260507035622 | 49 | 292 | 0.0 | 0.0 | 0.02 | 1.75 | 0.34 | 92 | 992.4 |
| 20260507035522 | 49 | 292 | 0.0 | 0.0 | 0.04 | 1.75 | 0.34 | 92 | 992.4 |
| 20260507035421 | 49 | 292 | 0.0 | 0.0 | 0.04 | 1.75 | 0.34 | 92 | 992.3 |
| 20260507035321 | 49 | 292 | 0.0 | 0.0 | 0.04 | 1.75 | 0.34 | 92 | 992.5 |
| 20260507035221 | 49 | 292 | 0.0 | 0.0 | 0.04 | 1.75 | 0.34 | 92 | 992.3 |
| 20260507035121 | 49 | 292 | 0.0 | 0.0 | 0.04 | 1.75 | 0.34 | 92 | 992.4 |
| 20260507035021 | 49 | 292 | 0.0 | 0.0 | 0.04 | 1.75 | 0.34 | 91 | 992.4 |
| 20260507034921 | 49 | 292 | 0.0 | 0.0 | 0.04 | 1.75 | 0.34 | 92 | 992.4 |
| 20260507034821 | 49 | 292 | 0.0 | 0.0 | 0.04 | 1.75 | 0.34 | 91 | 992.5 |
| 20260507034721 | 49 | 292 | 0.0 | 0.9 | 0.04 | 1.75 | 0.34 | 91 | 992.4 |
| 20260507034621 | 49 | 292 | 0.0 | 0.9 | 0.04 | 1.75 | 0.34 | 91 | 992.4 |
| 20260507034521 | 49 | 292 | 0.0 | 0.9 | 0.05 | 1.75 | 0.34 | 91 | 992.3 |
| 20260507034421 | 49 | 274 | 0.0 | 0.9 | 0.05 | 1.75 | 0.34 | 91 | 992.3 |
| 20260507034321 | 49 | 270 | 0.0 | 0.9 | 0.05 | 1.75 | 0.34 | 91 | 992.2 |
| 20260507034221 | 49 | 270 | 0.0 | 0.9 | 0.05 | 1.75 | 0.34 | 91 | 992.3 |
| 20260507034121 | 49 | 270 | 0.9 | 0.9 | 0.05 | 1.75 | 0.34 | 91 | 992.3 |
| 20260507034021 | 49 | 276 | 0.0 | 0.9 | 0.05 | 1.75 | 0.34 | 91 | 992.2 |
| 20260507033921 | 49 | 286 | 0.0 | 1.7 | 0.05 | 1.75 | 0.34 | 91 | 992.3 |
| 20260507033821 | 49 | 270 | 0.9 | 1.7 | 0.05 | 1.75 | 0.34 | 91 | 992.2 |
| 20260507033721 | 49 | 270 | 0.9 | 1.7 | 0.05 | 1.75 | 0.34 | 91 | 992.1 |
| 20260507033621 | 49 | 264 | 0.9 | 4.3 | 0.04 | 1.74 | 0.33 | 91 | 992.3 |
| 20260507033523 | 49 | 259 | 1.7 | 5.2 | 0.04 | 1.74 | 0.33 | 91 | 992.2 |
| 20260507033423 | 49 | 270 | 1.7 | 5.2 | 0.04 | 1.74 | 0.33 | 92 | 992.2 |
| 20260507033323 | 50 | 270 | 0.9 | 2.6 | 0.05 | 1.74 | 0.33 | 92 | 992.2 |
| 20260507033222 | 50 | 270 | 0.9 | 2.6 | 0.05 | 1.74 | 0.33 | 92 | 992.3 |
| 20260507033122 | 50 | 270 | 0.9 | 1.7 | 0.05 | 1.74 | 0.33 | 92 | 992.2 |
| 20260507033022 | 50 | 270 | 0.9 | 2.6 | 0.05 | 1.74 | 0.33 | 92 | 992.0 |
| 20260507032922 | 50 | 288 | 0.9 | 2.6 | 0.05 | 1.74 | 0.33 | 92 | 992.2 |
| 20260507032822 | 50 | 310 | 0.9 | 2.6 | 0.05 | 1.74 | 0.33 | 92 | 992.2 |
| 20260507032722 | 50 | 270 | 0.9 | 1.7 | 0.05 | 1.74 | 0.33 | 92 | 992.2 |
| 20260507032622 | 50 | 270 | 0.9 | 1.7 | 0.05 | 1.74 | 0.33 | 92 | 992.1 |
| 20260507032522 | 50 | 270 | 0.9 | 1.7 | 0.05 | 1.74 | 0.33 | 92 | 992.2 |
| 20260507032422 | 50 | 270 | 0.9 | 1.7 | 0.05 | 1.74 | 0.33 | 92 | 992.1 |
| 20260507032322 | 50 | 270 | 1.7 | 2.6 | 0.05 | 1.74 | 0.33 | 92 | 992.1 |
| 20260507032222 | 50 | 254 | 1.7 | 5.2 | 0.05 | 1.74 | 0.33 | 92 | 992.1 |
| 20260507032122 | 50 | 248 | 1.7 | 5.2 | 0.05 | 1.74 | 0.33 | 92 | 992.2 |
| 20260507032022 | 50 | 279 | 1.7 | 5.2 | 0.05 | 1.74 | 0.33 | 92 | 992.1 |
| 20260507031922 | 50 | 270 | 2.6 | 5.2 | 0.05 | 1.74 | 0.33 | 92 | 992.1 |
| 20260507031822 | 50 | 270 | 0.9 | 4.3 | 0.05 | 1.74 | 0.33 | 93 | 992.1 |
| 20260507031722 | 50 | 270 | 0.9 | 1.7 | 0.05 | 1.74 | 0.33 | 93 | 991.9 |
| 20260507031622 | 50 | 259 | 0.9 | 4.3 | 0.05 | 1.74 | 0.33 | 93 | 991.9 |
| 20260507031522 | 50 | 280 | 0.9 | 4.3 | 0.05 | 1.74 | 0.33 | 93 | 991.9 |
| 20260507031422 | 50 | 288 | 0.9 | 6.1 | 0.04 | 1.72 | 0.32 | 93 | 991.9 |
| 20260507031322 | 50 | 249 | 2.6 | 6.1 | 0.04 | 1.72 | 0.32 | 93 | 992.0 |
| 20260507031222 | 50 | 248 | 1.7 | 6.1 | 0.04 | 1.72 | 0.32 | 93 | 991.9 |
| 20260507031121 | 50 | 258 | 0.9 | 1.7 | 0.04 | 1.72 | 0.32 | 93 | 991.9 |
| 20260507031021 | 50 | 256 | 0.9 | 2.6 | 0.04 | 1.72 | 0.32 | 93 | 991.9 |
| 20260507030921 | 50 | 286 | 0.9 | 2.6 | 0.04 | 1.72 | 0.32 | 93 | 991.9 |
| 20260507030821 | 50 | 266 | 1.7 | 2.6 | 0.04 | 1.72 | 0.32 | 93 | 992.0 |
| 20260507030721 | 50 | 258 | 1.7 | 2.6 | 0.04 | 1.72 | 0.32 | 93 | 992.0 |
| 20260507030621 | 50 | 270 | 1.7 | 2.6 | 0.04 | 1.72 | 0.32 | 93 | 991.8 |
| 20260507030521 | 50 | 270 | 1.7 | 2.6 | 0.04 | 1.72 | 0.32 | 93 | 991.7 |
| 20260507030421 | 50 | 311 | 0.9 | 2.6 | 0.04 | 1.72 | 0.32 | 93 | 991.6 |
| 20260507030321 | 50 | 42 | 0.0 | 0.0 | 0.04 | 1.72 | 0.32 | 93 | 991.7 |
| 20260507030221 | 50 | 111 | 0.0 | 0.0 | 0.05 | 1.72 | 0.32 | 93 | 991.7 |
| 20260507030121 | 50 | 340 | 0.0 | 0.0 | 0.05 | 1.72 | 0.32 | 93 | 991.8 |
| 20260507030021 | 50 | 309 | 0.0 | 0.9 | 0.05 | 1.72 | 0.32 | 93 | 991.7 |
| 20260507025921 | 50 | 270 | 0.0 | 0.9 | 0.05 | 1.72 | 0.32 | 93 | 991.8 |
| 20260507025821 | 50 | 305 | 0.0 | 0.9 | 0.05 | 1.72 | 0.32 | 93 | 991.7 |
| 20260507025721 | 50 | 274 | 0.9 | 0.9 | 0.05 | 1.72 | 0.32 | 93 | 991.8 |
| 20260507025621 | 50 | 275 | 0.0 | 0.9 | 0.05 | 1.72 | 0.32 | 93 | 991.8 |
| 20260507025521 | 50 | 292 | 0.0 | 0.9 | 0.04 | 1.71 | 0.31 | 93 | 991.7 |
| 20260507025421 | 50 | 280 | 0.0 | 1.7 | 0.04 | 1.71 | 0.31 | 93 | 991.7 |
| 20260507025323 | 50 | 286 | 0.0 | 1.7 | 0.04 | 1.71 | 0.31 | 93 | 991.8 |
| 20260507025223 | 50 | 274 | 0.0 | 1.7 | 0.04 | 1.71 | 0.31 | 93 | 991.6 |
| 20260507025123 | 50 | 325 | 0.0 | 0.9 | 0.04 | 1.71 | 0.31 | 93 | 991.7 |
| 20260507025022 | 50 | 7 | 0.0 | 0.9 | 0.04 | 1.71 | 0.31 | 93 | 991.8 |
| 20260507024922 | 50 | 327 | 0.9 | 1.7 | 0.04 | 1.71 | 0.31 | 93 | 991.7 |
| 20260507024822 | 50 | 286 | 0.0 | 1.7 | 0.04 | 1.71 | 0.31 | 93 | 991.7 |
| 20260507024722 | 50 | 328 | 0.0 | 0.9 | 0.05 | 1.71 | 0.31 | 93 | 991.6 |
| 20260507024622 | 50 | 299 | 0.0 | 0.9 | 0.05 | 1.71 | 0.31 | 93 | 991.7 |
| 20260507024522 | 50 | 321 | 0.0 | 0.9 | 0.04 | 1.70 | 0.30 | 93 | 991.7 |
| 20260507024422 | 50 | 1 | 0.0 | 0.9 | 0.04 | 1.70 | 0.30 | 93 | 991.8 |
| 20260507024322 | 50 | 354 | 0.0 | 0.9 | 0.04 | 1.70 | 0.30 | 93 | 991.7 |
| 20260507024222 | 50 | 358 | 0.0 | 0.9 | 0.04 | 1.70 | 0.30 | 93 | 991.6 |
| 20260507024122 | 50 | 12 | 0.0 | 1.7 | 0.04 | 1.70 | 0.30 | 93 | 991.5 |
| 20260507024022 | 50 | 331 | 0.0 | 1.7 | 0.04 | 1.70 | 0.30 | 93 | 991.6 |
| 20260507023922 | 50 | 292 | 0.0 | 0.9 | 0.04 | 1.70 | 0.30 | 93 | 991.7 |
| 20260507023822 | 50 | 17 | 0.0 | 0.9 | 0.04 | 1.70 | 0.30 | 93 | 991.6 |
| 20260507023722 | 50 | 106 | 0.0 | 0.9 | 0.04 | 1.70 | 0.30 | 93 | 991.5 |
| 20260507023622 | 50 | 99 | 0.0 | 0.9 | 0.05 | 1.70 | 0.30 | 93 | 991.6 |
| 20260507023522 | 50 | 22 | 0.0 | 0.0 | 0.05 | 1.70 | 0.30 | 93 | 991.6 |
| 20260507023422 | 50 | 38 | 0.0 | 0.0 | 0.05 | 1.70 | 0.30 | 93 | 991.7 |
| 20260507023322 | 50 | 0 | 0.0 | 0.0 | 0.04 | 1.69 | 0.28 | 93 | 991.7 |
| 20260507023222 | 50 | 318 | 0.0 | 0.0 | 0.04 | 1.69 | 0.28 | 93 | 991.6 |
| 20260507023122 | 50 | 356 | 0.0 | 0.9 | 0.04 | 1.69 | 0.28 | 93 | 991.6 |
| 20260507023022 | 50 | 115 | 0.0 | 1.7 | 0.04 | 1.69 | 0.28 | 93 | 991.6 |
| 20260507022922 | 50 | 304 | 0.0 | 1.7 | 0.04 | 1.69 | 0.28 | 93 | 991.5 |
| 20260507022822 | 50 | 286 | 0.0 | 0.9 | 0.04 | 1.69 | 0.28 | 93 | 991.6 |
| 20260507022722 | 50 | 304 | 0.0 | 0.9 | 0.04 | 1.69 | 0.28 | 93 | 991.5 |
| 20260507022622 | 50 | 292 | 0.0 | 0.9 | 0.04 | 1.69 | 0.28 | 93 | 991.5 |
| 20260507022522 | 50 | 324 | 0.0 | 0.9 | 0.04 | 1.69 | 0.28 | 93 | 991.5 |
| 20260507022422 | 50 | 337 | 0.0 | 0.9 | 0.04 | 1.69 | 0.28 | 93 | 991.6 |
| 20260507022321 | 50 | 248 | 0.0 | 0.9 | 0.05 | 1.69 | 0.28 | 93 | 991.5 |
| 20260507022221 | 50 | 68 | 0.0 | 0.9 | 0.05 | 1.69 | 0.28 | 93 | 991.5 |
| 20260507022121 | 50 | 6 | 0.0 | 0.9 | 0.05 | 1.69 | 0.28 | 93 | 991.4 |
| 20260507022021 | 50 | 18 | 0.0 | 0.9 | 0.05 | 1.69 | 0.28 | 93 | 991.4 |
| 20260507021921 | 50 | 22 | 0.0 | 0.0 | 0.05 | 1.69 | 0.28 | 93 | 991.5 |
| 20260507021821 | 50 | 22 | 0.0 | 0.9 | 0.05 | 1.69 | 0.28 | 92 | 991.4 |
| 20260507021721 | 50 | 105 | 0.0 | 0.9 | 0.05 | 1.69 | 0.28 | 92 | 991.4 |
| 20260507021621 | 50 | 135 | 0.0 | 0.9 | 0.05 | 1.69 | 0.28 | 92 | 991.5 |
| 20260507021521 | 50 | 315 | 0.0 | 0.9 | 0.05 | 1.69 | 0.28 | 92 | 991.5 |
| 20260507021421 | 50 | 264 | 0.0 | 0.9 | 0.05 | 1.69 | 0.28 | 92 | 991.4 |
| 20260507021321 | 50 | 260 | 0.0 | 1.7 | 0.05 | 1.69 | 0.28 | 92 | 991.4 |
| 20260507021221 | 50 | 283 | 0.0 | 1.7 | 0.05 | 1.69 | 0.28 | 92 | 991.5 |
| 20260507021121 | 50 | 292 | 0.0 | 0.0 | 0.05 | 1.69 | 0.28 | 92 | 991.5 |
| 20260507021021 | 50 | 7 | 0.0 | 0.9 | 0.05 | 1.69 | 0.28 | 92 | 991.4 |
| 20260507020921 | 50 | 26 | 0.0 | 0.9 | 0.06 | 1.69 | 0.28 | 92 | 991.3 |
| 20260507020821 | 50 | 341 | 0.0 | 0.0 | 0.06 | 1.69 | 0.28 | 92 | 991.4 |
| 20260507020721 | 50 | 1 | 0.0 | 0.0 | 0.06 | 1.69 | 0.28 | 92 | 991.3 |
| 20260507020621 | 50 | 6 | 0.0 | 0.9 | 0.06 | 1.69 | 0.28 | 92 | 991.4 |
| 20260507020521 | 50 | 345 | 0.0 | 0.9 | 0.06 | 1.69 | 0.28 | 92 | 991.4 |
| 20260507020421 | 50 | 329 | 0.0 | 0.9 | 0.06 | 1.69 | 0.28 | 92 | 991.5 |
| 20260507020323 | 50 | 32 | 0.0 | 0.9 | 0.06 | 1.69 | 0.28 | 92 | 991.4 |
| 20260507020223 | 50 | 325 | 0.0 | 0.9 | 0.05 | 1.68 | 0.27 | 92 | 991.3 |
| 20260507020123 | 50 | 270 | 0.0 | 0.9 | 0.05 | 1.68 | 0.27 | 92 | 991.3 |
| 20260507020023 | 50 | 274 | 0.0 | 0.0 | 0.05 | 1.68 | 0.27 | 92 | 991.3 |
| 20260507015922 | 50 | 112 | 0.0 | 0.0 | 0.06 | 1.68 | 0.27 | 92 | 991.3 |
| 20260507015822 | 50 | 112 | 0.0 | 0.0 | 0.06 | 1.68 | 0.27 | 92 | 991.3 |
| 20260507015722 | 50 | 160 | 0.0 | 0.0 | 0.06 | 1.68 | 0.27 | 92 | 991.3 |
| 20260507015622 | 50 | 292 | 0.0 | 0.0 | 0.06 | 1.68 | 0.27 | 92 | 991.3 |
| 20260507015522 | 50 | 10 | 0.0 | 0.0 | 0.06 | 1.68 | 0.27 | 92 | 991.3 |
| 20260507015422 | 50 | 10 | 0.0 | 0.0 | 0.06 | 1.68 | 0.27 | 92 | 991.3 |
| 20260507015322 | 50 | 39 | 0.0 | 0.9 | 0.06 | 1.68 | 0.27 | 92 | 991.4 |
| 20260507015222 | 50 | 80 | 0.0 | 0.9 | 0.06 | 1.68 | 0.27 | 92 | 991.2 |
| 20260507015122 | 50 | 338 | 0.0 | 0.9 | 0.06 | 1.68 | 0.27 | 91 | 991.2 |
| 20260507015022 | 50 | 23 | 0.0 | 0.9 | 0.06 | 1.68 | 0.27 | 91 | 991.2 |
| 20260507014922 | 50 | 76 | 0.0 | 1.7 | 0.06 | 1.68 | 0.27 | 91 | 991.1 |
| 20260507014822 | 50 | 88 | 0.0 | 1.7 | 0.06 | 1.68 | 0.27 | 91 | 991.2 |
| 20260507014722 | 50 | 78 | 0.0 | 0.9 | 0.05 | 1.67 | 0.26 | 91 | 991.2 |
| 20260507014622 | 50 | 58 | 0.0 | 0.9 | 0.05 | 1.67 | 0.26 | 91 | 991.2 |
| 20260507014522 | 50 | 65 | 0.0 | 1.7 | 0.05 | 1.67 | 0.26 | 91 | 991.2 |
| 20260507014422 | 50 | 324 | 0.0 | 1.7 | 0.05 | 1.67 | 0.26 | 91 | 991.1 |
| 20260507014322 | 50 | 338 | 0.0 | 0.9 | 0.06 | 1.67 | 0.26 | 91 | 991.1 |
| 20260507014222 | 50 | 17 | 0.0 | 0.9 | 0.06 | 1.67 | 0.26 | 91 | 991.0 |
| 20260507014122 | 50 | 98 | 0.0 | 0.9 | 0.06 | 1.67 | 0.26 | 91 | 991.1 |
| 20260507014022 | 50 | 112 | 0.0 | 2.6 | 0.06 | 1.67 | 0.26 | 91 | 991.1 |
| 20260507013922 | 50 | 112 | 0.9 | 2.6 | 0.06 | 1.67 | 0.26 | 91 | 991.2 |
| 20260507013822 | 50 | 126 | 0.0 | 0.9 | 0.06 | 1.67 | 0.26 | 91 | 991.2 |
| 20260507013722 | 50 | 104 | 0.0 | 0.0 | 0.06 | 1.67 | 0.26 | 92 | 991.2 |
| 20260507013622 | 50 | 90 | 0.0 | 0.0 | 0.05 | 1.65 | 0.25 | 92 | 991.2 |
| 20260507013522 | 50 | 78 | 0.0 | 0.0 | 0.05 | 1.65 | 0.25 | 92 | 991.1 |
| 20260507013422 | 50 | 68 | 0.0 | 0.0 | 0.06 | 1.65 | 0.25 | 92 | 991.0 |
| 20260507013322 | 50 | 51 | 0.0 | 0.9 | 0.06 | 1.65 | 0.25 | 92 | 991.1 |
| 20260507013222 | 50 | 23 | 0.0 | 0.9 | 0.06 | 1.65 | 0.25 | 92 | 991.1 |
| 20260507013122 | 50 | 22 | 0.0 | 0.0 | 0.06 | 1.65 | 0.25 | 92 | 991.2 |
| 20260507013022 | 50 | 12 | 0.0 | 0.0 | 0.06 | 1.65 | 0.25 | 92 | 991.2 |
| 20260507012921 | 50 | 18 | 0.0 | 0.9 | 0.06 | 1.65 | 0.25 | 92 | 991.1 |
| 20260507012821 | 50 | 67 | 0.0 | 1.7 | 0.06 | 1.65 | 0.25 | 92 | 991.1 |
| 20260507012721 | 50 | 80 | 0.0 | 1.7 | 0.06 | 1.65 | 0.25 | 92 | 991.1 |
| 20260507012621 | 50 | 69 | 0.0 | 0.9 | 0.07 | 1.65 | 0.25 | 92 | 991.1 |
| 20260507012521 | 50 | 45 | 0.0 | 0.9 | 0.07 | 1.65 | 0.25 | 92 | 991.0 |
| 20260507012421 | 50 | 45 | 0.0 | 0.0 | 0.07 | 1.65 | 0.25 | 92 | 991.1 |
| 20260507012321 | 50 | 82 | 0.0 | 1.7 | 0.06 | 1.64 | 0.24 | 92 | 991.1 |
| 20260507012221 | 50 | 113 | 0.9 | 1.7 | 0.06 | 1.64 | 0.24 | 92 | 991.1 |
| 20260507012121 | 50 | 40 | 0.0 | 0.9 | 0.06 | 1.64 | 0.24 | 92 | 991.1 |
| 20260507012021 | 50 | 89 | 0.0 | 0.9 | 0.06 | 1.64 | 0.24 | 92 | 991.0 |
| 20260507011921 | 50 | 5 | 0.0 | 0.0 | 0.06 | 1.64 | 0.24 | 92 | 991.0 |
| 20260507011821 | 50 | 338 | 0.0 | 1.7 | 0.06 | 1.64 | 0.24 | 92 | 991.0 |
| 20260507011721 | 50 | 58 | 0.0 | 1.7 | 0.06 | 1.64 | 0.24 | 92 | 991.1 |
| 20260507011621 | 50 | 60 | 0.0 | 0.9 | 0.07 | 1.64 | 0.24 | 92 | 991.1 |
| 20260507011521 | 50 | 45 | 0.0 | 0.9 | 0.07 | 1.64 | 0.24 | 92 | 991.0 |
| 20260507011421 | 50 | 61 | 0.0 | 0.9 | 0.07 | 1.64 | 0.24 | 92 | 991.0 |
| 20260507011321 | 50 | 67 | 0.0 | 0.9 | 0.07 | 1.64 | 0.24 | 92 | 991.1 |
| 20260507011221 | 50 | 342 | 0.0 | 0.9 | 0.07 | 1.64 | 0.24 | 92 | 991.0 |
| 20260507011121 | 50 | 112 | 0.0 | 0.9 | 0.07 | 1.64 | 0.24 | 92 | 991.1 |
| 20260507011021 | 50 | 112 | 0.0 | 1.7 | 0.08 | 1.64 | 0.24 | 92 | 991.1 |
| 20260507010921 | 50 | 112 | 0.9 | 1.7 | 0.07 | 1.63 | 0.22 | 92 | 991.0 |
| 20260507010821 | 50 | 97 | 0.0 | 0.9 | 0.07 | 1.63 | 0.22 | 92 | 991.1 |
| 20260507010721 | 50 | 62 | 0.0 | 0.9 | 0.07 | 1.63 | 0.22 | 92 | 990.9 |
| 20260507010621 | 50 | 137 | 0.0 | 0.9 | 0.07 | 1.63 | 0.22 | 92 | 991.0 |
| 20260507010523 | 50 | 94 | 0.0 | 0.9 | 0.07 | 1.63 | 0.22 | 92 | 991.0 |
| 20260507010423 | 50 | 60 | 0.0 | 0.9 | 0.07 | 1.63 | 0.22 | 92 | 990.9 |
| 20260507010323 | 50 | 68 | 0.0 | 1.7 | 0.07 | 1.63 | 0.22 | 92 | 991.0 |
| 20260507010222 | 50 | 113 | 0.0 | 1.7 | 0.07 | 1.63 | 0.22 | 92 | 990.9 |
| 20260507010122 | 50 | 78 | 0.0 | 0.0 | 0.07 | 1.63 | 0.22 | 92 | 991.0 |
| 20260507010022 | 50 | 23 | 0.0 | 0.0 | 0.08 | 1.63 | 0.22 | 92 | 990.9 |
| 20260507005922 | 50 | 16 | 0.0 | 0.0 | 0.07 | 1.62 | 0.21 | 92 | 990.9 |
| 20260507005822 | 50 | 0 | 0.0 | 0.0 | 0.07 | 1.62 | 0.21 | 92 | 991.0 |
| 20260507005722 | 50 | 0 | 0.0 | 0.0 | 0.07 | 1.62 | 0.21 | 92 | 990.9 |
| 20260507005622 | 50 | 23 | 0.0 | 0.0 | 0.07 | 1.62 | 0.21 | 92 | 991.1 |
| 20260507005522 | 50 | 68 | 0.0 | 0.9 | 0.07 | 1.62 | 0.21 | 92 | 991.1 |
| 20260507005422 | 50 | 68 | 0.0 | 0.9 | 0.07 | 1.62 | 0.21 | 92 | 991.1 |
| 20260507005322 | 50 | 85 | 0.0 | 0.0 | 0.07 | 1.62 | 0.21 | 92 | 991.0 |
| 20260507005222 | 50 | 98 | 0.0 | 0.0 | 0.07 | 1.62 | 0.21 | 92 | 990.9 |
| 20260507005122 | 50 | 105 | 0.0 | 0.9 | 0.07 | 1.62 | 0.21 | 92 | 991.0 |
| 20260507005022 | 50 | 55 | 0.0 | 0.9 | 0.08 | 1.62 | 0.21 | 92 | 991.0 |
| 20260507004922 | 50 | 14 | 0.0 | 0.0 | 0.08 | 1.62 | 0.21 | 92 | 991.0 |
| 20260507004822 | 50 | 66 | 0.0 | 0.0 | 0.08 | 1.62 | 0.21 | 92 | 991.0 |
| 20260507004722 | 50 | 9 | 0.0 | 0.0 | 0.08 | 1.62 | 0.21 | 92 | 991.0 |
| 20260507004622 | 50 | 326 | 0.0 | 0.0 | 0.08 | 1.62 | 0.21 | 92 | 991.1 |
| 20260507004522 | 50 | 339 | 0.0 | 0.0 | 0.08 | 1.62 | 0.21 | 92 | 991.1 |
| 20260507004422 | 50 | 73 | 0.0 | 0.0 | 0.08 | 1.62 | 0.21 | 92 | 990.9 |
| 20260507004321 | 50 | 38 | 0.0 | 0.0 | 0.07 | 1.61 | 0.20 | 92 | 991.0 |
| 20260507004221 | 50 | 358 | 0.0 | 0.0 | 0.07 | 1.61 | 0.20 | 92 | 991.0 |
| 20260507004121 | 50 | 309 | 0.0 | 0.9 | 0.08 | 1.61 | 0.20 | 92 | 990.9 |
| 20260507004021 | 50 | 337 | 0.0 | 0.9 | 0.08 | 1.61 | 0.20 | 92 | 991.0 |
| 20260507003921 | 50 | 331 | 0.0 | 0.9 | 0.08 | 1.61 | 0.20 | 92 | 990.9 |
| 20260507003821 | 50 | 32 | 0.0 | 0.9 | 0.08 | 1.61 | 0.20 | 92 | 991.0 |
| 20260507003721 | 50 | 156 | 0.0 | 1.7 | 0.08 | 1.61 | 0.20 | 92 | 991.1 |
| 20260507003621 | 50 | 68 | 0.0 | 1.7 | 0.08 | 1.61 | 0.20 | 92 | 991.0 |
| 20260507003521 | 50 | 55 | 0.0 | 0.0 | 0.08 | 1.61 | 0.20 | 92 | 991.0 |
| 20260507003421 | 50 | 22 | 0.0 | 0.0 | 0.08 | 1.59 | 0.19 | 92 | 990.9 |
| 20260507003321 | 50 | 2 | 0.0 | 0.9 | 0.08 | 1.59 | 0.19 | 92 | 991.0 |
| 20260507003221 | 50 | 356 | 0.0 | 0.9 | 0.08 | 1.59 | 0.19 | 92 | 991.1 |
| 20260507003121 | 50 | 102 | 0.0 | 0.9 | 0.08 | 1.59 | 0.19 | 92 | 990.9 |
| 20260507003021 | 50 | 26 | 0.0 | 0.9 | 0.09 | 1.59 | 0.19 | 92 | 990.9 |
| 20260507002921 | 50 | 346 | 0.0 | 0.9 | 0.09 | 1.59 | 0.19 | 92 | 990.9 |
| 20260507002821 | 50 | 45 | 0.0 | 0.9 | 0.09 | 1.59 | 0.19 | 92 | 990.9 |
| 20260507002721 | 50 | 25 | 0.0 | 0.9 | 0.09 | 1.59 | 0.19 | 92 | 990.9 |
| 20260507002621 | 50 | 350 | 0.0 | 0.9 | 0.08 | 1.58 | 0.18 | 92 | 991.0 |
| 20260507002521 | 50 | 305 | 0.0 | 0.9 | 0.08 | 1.58 | 0.18 | 92 | 990.9 |
| 20260507002421 | 50 | 292 | 0.0 | 0.9 | 0.09 | 1.58 | 0.18 | 92 | 990.9 |
| 20260507002323 | 50 | 82 | 0.0 | 0.9 | 0.09 | 1.58 | 0.18 | 92 | 990.9 |
| 20260507002223 | 50 | 0 | 0.0 | 0.9 | 0.09 | 1.58 | 0.18 | 92 | 990.8 |
| 20260507002123 | 50 | 337 | 0.0 | 0.9 | 0.09 | 1.58 | 0.18 | 92 | 990.8 |
| 20260507002022 | 50 | 317 | 0.9 | 1.7 | 0.09 | 1.58 | 0.18 | 92 | 990.9 |
| 20260507001922 | 50 | 329 | 0.0 | 1.7 | 0.09 | 1.58 | 0.18 | 92 | 991.0 |
| 20260507001822 | 50 | 267 | 0.0 | 0.9 | 0.11 | 1.58 | 0.18 | 92 | 990.9 |
| 20260507001722 | 50 | 291 | 0.0 | 1.7 | 0.11 | 1.58 | 0.18 | 92 | 990.9 |
| 20260507001622 | 50 | 279 | 0.9 | 2.6 | 0.09 | 1.57 | 0.17 | 92 | 990.9 |
| 20260507001522 | 50 | 270 | 0.9 | 2.6 | 0.09 | 1.57 | 0.17 | 92 | 990.9 |
| 20260507001422 | 50 | 270 | 0.9 | 4.3 | 0.09 | 1.57 | 0.17 | 92 | 990.8 |
| 20260507001322 | 51 | 275 | 0.9 | 4.3 | 0.09 | 1.57 | 0.17 | 92 | 991.0 |
| 20260507001222 | 51 | 10 | 0.9 | 2.6 | 0.09 | 1.57 | 0.17 | 92 | 991.0 |
| 20260507001122 | 51 | 311 | 0.9 | 2.6 | 0.09 | 1.57 | 0.17 | 92 | 990.8 |
| 20260507001022 | 51 | 0 | 0.0 | 0.9 | 0.09 | 1.56 | 0.15 | 92 | 990.8 |
| 20260507000922 | 51 | 282 | 0.9 | 1.7 | 0.09 | 1.56 | 0.15 | 92 | 990.9 |
| 20260507000822 | 51 | 270 | 0.9 | 1.7 | 0.09 | 1.56 | 0.15 | 91 | 990.8 |
| 20260507000722 | 51 | 270 | 0.9 | 1.7 | 0.09 | 1.56 | 0.15 | 91 | 990.9 |
| 20260507000622 | 51 | 270 | 0.9 | 1.7 | 0.09 | 1.56 | 0.15 | 91 | 990.7 |
| 20260507000522 | 51 | 270 | 0.9 | 1.7 | 0.09 | 1.56 | 0.15 | 91 | 990.8 |
| 20260507000422 | 51 | 270 | 0.9 | 1.7 | 0.09 | 1.56 | 0.15 | 91 | 990.7 |
| 20260507000322 | 51 | 270 | 0.9 | 1.7 | 0.09 | 1.56 | 0.15 | 91 | 990.7 |
| 20260507000222 | 51 | 270 | 0.9 | 1.7 | 0.09 | 1.56 | 0.15 | 91 | 990.8 |
| 20260507000122 | 51 | 274 | 0.9 | 1.7 | 0.09 | 1.56 | 0.15 | 91 | 990.9 |
| 20260507000023 | 51 | 292 | 0.9 | 0.9 | 0.08 | 1.55 | 0.14 | 91 | 990.9 |
| 20260506235922 | 51 | 292 | 0.9 | 1.7 | 0.08 | 1.55 | 0.14 | 91 | 990.8 |
| 20260506235821 | 51 | 292 | 0.0 | 1.7 | 0.08 | 1.55 | 0.14 | 91 | 990.7 |
| 20260506235721 | 51 | 276 | 0.0 | 1.7 | 0.09 | 1.55 | 0.14 | 91 | 990.7 |
| 20260506235621 | 51 | 270 | 0.9 | 2.6 | 0.09 | 1.55 | 0.14 | 91 | 990.7 |
| 20260506235521 | 51 | 274 | 0.9 | 2.6 | 0.09 | 1.55 | 0.14 | 91 | 990.7 |
| 20260506235421 | 51 | 292 | 0.9 | 1.7 | 0.09 | 1.55 | 0.14 | 91 | 990.7 |
| 20260506235321 | 51 | 290 | 0.9 | 1.7 | 0.09 | 1.55 | 0.14 | 91 | 990.7 |
| 20260506235221 | 51 | 273 | 0.9 | 0.9 | 0.09 | 1.55 | 0.14 | 91 | 990.8 |
| 20260506235121 | 51 | 292 | 0.0 | 1.7 | 0.09 | 1.55 | 0.14 | 91 | 990.7 |
| 20260506235021 | 51 | 261 | 0.0 | 1.7 | 0.08 | 1.54 | 0.13 | 91 | 990.7 |
| 20260506234921 | 51 | 332 | 0.0 | 0.9 | 0.09 | 1.54 | 0.13 | 91 | 990.6 |
| 20260506234821 | 51 | 292 | 0.0 | 0.0 | 0.09 | 1.54 | 0.13 | 91 | 990.6 |
| 20260506234721 | 51 | 292 | 0.0 | 0.0 | 0.09 | 1.54 | 0.13 | 91 | 990.7 |
| 20260506234621 | 51 | 292 | 0.0 | 0.9 | 0.09 | 1.54 | 0.13 | 91 | 990.7 |
| 20260506234521 | 51 | 292 | 0.0 | 0.9 | 0.09 | 1.54 | 0.13 | 91 | 990.6 |
| 20260506234421 | 51 | 295 | 0.0 | 0.9 | 0.09 | 1.54 | 0.13 | 91 | 990.7 |
| 20260506234321 | 51 | 56 | 0.0 | 0.9 | 0.09 | 1.54 | 0.13 | 91 | 990.6 |
| 20260506234221 | 51 | 315 | 0.0 | 0.0 | 0.09 | 1.54 | 0.13 | 91 | 990.7 |
| 20260506234123 | 51 | 296 | 0.0 | 0.0 | 0.09 | 1.52 | 0.12 | 91 | 990.6 |
| 20260506234023 | 51 | 292 | 0.0 | 0.9 | 0.09 | 1.52 | 0.12 | 91 | 990.6 |
| 20260506233923 | 51 | 284 | 0.0 | 0.9 | 0.09 | 1.52 | 0.12 | 91 | 990.6 |
| 20260506233823 | 51 | 270 | 0.0 | 0.9 | 0.09 | 1.52 | 0.12 | 90 | 990.7 |
| 20260506233722 | 51 | 266 | 0.0 | 0.9 | 0.09 | 1.52 | 0.12 | 90 | 990.6 |
| 20260506233622 | 51 | 251 | 0.9 | 1.7 | 0.09 | 1.52 | 0.12 | 90 | 990.5 |
| 20260506233522 | 51 | 262 | 0.9 | 1.7 | 0.09 | 1.52 | 0.12 | 90 | 990.7 |
| 20260506233422 | 51 | 264 | 0.0 | 1.7 | 0.08 | 1.51 | 0.11 | 90 | 990.6 |
| 20260506233322 | 51 | 320 | 0.0 | 0.0 | 0.08 | 1.51 | 0.11 | 90 | 990.5 |
| 20260506233222 | 51 | 83 | 0.0 | 0.0 | 0.08 | 1.51 | 0.11 | 90 | 990.5 |
| 20260506233122 | 51 | 12 | 0.0 | 0.0 | 0.08 | 1.51 | 0.11 | 90 | 990.6 |
| 20260506233022 | 51 | 32 | 0.0 | 0.0 | 0.07 | 1.50 | 0.09 | 90 | 990.6 |
| 20260506232922 | 51 | 351 | 0.0 | 0.9 | 0.07 | 1.50 | 0.09 | 90 | 990.5 |
| 20260506232822 | 51 | 312 | 0.0 | 0.9 | 0.07 | 1.50 | 0.09 | 90 | 990.5 |
| 20260506232722 | 51 | 315 | 0.0 | 0.9 | 0.07 | 1.50 | 0.09 | 90 | 990.6 |
| 20260506232622 | 51 | 346 | 0.0 | 0.9 | 0.07 | 1.50 | 0.09 | 90 | 990.5 |
| 20260506232522 | 51 | 333 | 0.0 | 0.9 | 0.07 | 1.50 | 0.09 | 90 | 990.5 |
| 20260506232422 | 51 | 6 | 0.0 | 0.0 | 0.06 | 1.49 | 0.08 | 89 | 990.5 |
| 20260506232322 | 51 | 10 | 0.0 | 0.9 | 0.06 | 1.49 | 0.08 | 89 | 990.5 |
| 20260506232222 | 51 | 284 | 0.0 | 0.9 | 0.06 | 1.49 | 0.08 | 89 | 990.5 |
| 20260506232122 | 51 | 306 | 0.0 | 0.9 | 0.06 | 1.49 | 0.08 | 89 | 990.5 |
| 20260506232022 | 51 | 357 | 0.0 | 0.0 | 0.06 | 1.49 | 0.08 | 89 | 990.4 |
| 20260506231922 | 51 | 354 | 0.0 | 0.0 | 0.06 | 1.49 | 0.08 | 89 | 990.4 |
| 20260506231822 | 51 | 11 | 0.0 | 1.7 | 0.05 | 1.48 | 0.07 | 89 | 990.3 |
| 20260506231722 | 51 | 113 | 0.0 | 1.7 | 0.06 | 1.48 | 0.07 | 89 | 990.3 |
| 20260506231622 | 51 | 126 | 0.0 | 0.9 | 0.06 | 1.48 | 0.07 | 89 | 990.4 |
| 20260506231522 | 51 | 84 | 0.0 | 0.0 | 0.06 | 1.48 | 0.07 | 89 | 990.4 |
| 20260506231422 | 51 | 111 | 0.0 | 0.9 | 0.06 | 1.48 | 0.07 | 89 | 990.3 |
| 20260506231322 | 51 | 317 | 0.0 | 0.9 | 0.06 | 1.48 | 0.07 | 89 | 990.4 |
| 20260506231222 | 51 | 312 | 0.0 | 0.0 | 0.06 | 1.48 | 0.07 | 89 | 990.3 |
| 20260506231122 | 51 | 317 | 0.0 | 0.0 | 0.06 | 1.48 | 0.07 | 89 | 990.4 |
| 20260506231021 | 51 | 0 | 0.0 | 0.0 | 0.05 | 1.46 | 0.06 | 89 | 990.4 |
| 20260506230921 | 51 | 0 | 0.0 | 0.0 | 0.05 | 1.46 | 0.06 | 89 | 990.2 |
| 20260506230821 | 51 | 332 | 0.0 | 0.9 | 0.05 | 1.46 | 0.06 | 89 | 990.3 |
| 20260506230721 | 51 | 340 | 0.0 | 0.9 | 0.05 | 1.46 | 0.06 | 89 | 990.2 |
| 20260506230621 | 51 | 272 | 0.0 | 0.9 | 0.06 | 1.46 | 0.06 | 89 | 990.4 |
| 20260506230521 | 51 | 331 | 0.0 | 0.9 | 0.06 | 1.46 | 0.06 | 89 | 990.4 |
| 20260506230421 | 51 | 330 | 0.0 | 0.0 | 0.06 | 1.46 | 0.06 | 89 | 990.3 |
| 20260506230321 | 51 | 48 | 0.0 | 0.0 | 0.06 | 1.46 | 0.06 | 88 | 990.4 |
| 20260506230221 | 51 | 90 | 0.0 | 2.6 | 0.06 | 1.46 | 0.06 | 88 | 990.4 |
| 20260506230121 | 51 | 90 | 0.9 | 2.6 | 0.06 | 1.46 | 0.06 | 88 | 990.5 |
| 20260506230021 | 51 | 326 | 0.0 | 2.6 | 0.06 | 1.46 | 0.06 | 88 | 990.4 |
| 20260506225921 | 51 | 20 | 0.9 | 2.6 | 0.00 | 1.46 | 0.06 | 88 | 990.3 |
| 20260506225821 | 51 | 78 | 0.0 | 2.6 | 0.00 | 1.46 | 0.06 | 88 | 990.3 |
| 20260506225721 | 51 | 88 | 0.0 | 0.9 | 0.00 | 1.45 | 0.05 | 88 | 990.3 |
| 20260506225621 | 51 | 132 | 0.9 | 2.6 | 0.00 | 1.45 | 0.05 | 87 | 990.3 |
| 20260506225521 | 51 | 301 | 0.9 | 5.2 | 0.00 | 1.45 | 0.05 | 87 | 990.3 |
| 20260506225421 | 51 | 10 | 1.7 | 5.2 | 0.00 | 1.45 | 0.05 | 88 | 990.2 |
| 20260506225321 | 51 | 129 | 0.9 | 5.2 | 0.00 | 1.45 | 0.05 | 88 | 990.4 |
| 20260506225221 | 51 | 135 | 0.9 | 2.6 | 0.00 | 1.45 | 0.05 | 88 | 990.2 |
| 20260506225121 | 51 | 116 | 0.9 | 1.7 | 0.00 | 1.45 | 0.05 | 88 | 990.2 |
| 20260506225021 | 51 | 298 | 0.9 | 1.7 | 0.00 | 1.45 | 0.05 | 87 | 990.3 |
| 20260506224921 | 51 | 112 | 0.9 | 1.7 | 0.00 | 1.44 | 0.04 | 88 | 990.4 |
| 20260506224821 | 51 | 132 | 0.9 | 2.6 | 0.00 | 1.44 | 0.04 | 87 | 990.2 |
| 20260506224721 | 51 | 148 | 0.9 | 6.1 | 0.00 | 1.44 | 0.04 | 87 | 990.1 |
| 20260506224621 | 51 | 140 | 0.9 | 6.1 | 0.00 | 1.44 | 0.04 | 88 | 990.3 |
| 20260506224523 | 51 | 133 | 0.9 | 2.6 | 0.00 | 1.44 | 0.04 | 88 | 990.3 |
| 20260506224423 | 51 | 210 | 1.7 | 2.6 | 0.00 | 1.44 | 0.04 | 88 | 990.3 |
| 20260506224323 | 51 | 99 | 0.9 | 1.7 | 0.00 | 1.44 | 0.04 | 88 | 990.3 |
| 20260506224223 | 51 | 148 | 0.9 | 2.6 | 0.00 | 1.44 | 0.04 | 87 | 990.2 |
| 20260506224123 | 51 | 115 | 1.7 | 2.6 | 0.00 | 1.43 | 0.02 | 87 | 990.2 |
| 20260506224022 | 51 | 78 | 1.7 | 4.3 | 0.00 | 1.43 | 0.02 | 87 | 990.3 |
| 20260506223922 | 51 | 112 | 0.0 | 0.9 | 0.00 | 1.43 | 0.02 | 88 | 990.2 |
| 20260506223822 | 51 | 113 | 0.9 | 4.3 | 0.00 | 1.43 | 0.02 | 88 | 990.4 |
| 20260506223722 | 51 | 150 | 0.9 | 4.3 | 0.00 | 1.43 | 0.02 | 88 | 990.3 |
| 20260506223622 | 51 | 134 | 0.0 | 1.7 | 0.00 | 1.43 | 0.02 | 88 | 990.3 |
| 20260506223522 | 51 | 126 | 0.9 | 4.3 | 0.00 | 1.43 | 0.02 | 87 | 990.2 |
| 20260506223422 | 51 | 122 | 1.7 | 4.3 | 0.00 | 1.43 | 0.02 | 87 | 990.1 |
| 20260506223322 | 51 | 148 | 0.9 | 4.3 | 0.00 | 1.43 | 0.02 | 88 | 990.3 |
| 20260506223222 | 51 | 149 | 0.9 | 4.3 | 0.00 | 1.43 | 0.02 | 88 | 990.2 |
| 20260506223122 | 52 | 165 | 1.7 | 4.3 | 0.00 | 1.43 | 0.02 | 88 | 990.4 |
| 20260506223022 | 52 | 321 | 0.9 | 2.6 | 0.00 | 1.43 | 0.02 | 88 | 990.3 |
| 20260506222922 | 52 | 358 | 1.7 | 2.6 | 0.00 | 1.43 | 0.02 | 88 | 990.4 |
| 20260506222822 | 52 | 115 | 0.9 | 2.6 | 0.00 | 1.43 | 0.02 | 88 | 990.2 |
| 20260506222722 | 52 | 112 | 0.9 | 1.7 | 0.00 | 1.43 | 0.02 | 88 | 990.2 |
| 20260506222622 | 52 | 147 | 0.9 | 4.3 | 0.00 | 1.43 | 0.02 | 87 | 990.2 |
| 20260506222522 | 52 | 93 | 1.7 | 4.3 | 0.00 | 1.43 | 0.02 | 87 | 990.3 |
| 20260506222422 | 51 | 124 | 1.7 | 4.3 | 0.00 | 1.43 | 0.02 | 87 | 990.4 |
| 20260506222322 | 51 | 129 | 2.6 | 4.3 | 0.00 | 1.43 | 0.02 | 87 | 990.3 |
| 20260506222222 | 51 | 123 | 1.7 | 4.3 | 0.00 | 1.43 | 0.02 | 88 | 990.3 |
| 20260506222122 | 51 | 118 | 0.9 | 1.7 | 0.00 | 1.43 | 0.02 | 88 | 990.2 |
| 20260506222022 | 51 | 128 | 0.9 | 2.6 | 0.00 | 1.43 | 0.02 | 88 | 990.2 |
| 20260506221922 | 51 | 100 | 0.9 | 2.6 | 0.00 | 1.43 | 0.02 | 88 | 990.1 |
| 20260506221822 | 51 | 87 | 0.9 | 2.6 | 0.00 | 1.43 | 0.02 | 88 | 990.3 |
| 20260506221722 | 51 | 133 | 0.9 | 2.6 | 0.00 | 1.42 | 0.01 | 88 | 990.2 |
| 20260506221622 | 51 | 124 | 1.7 | 4.3 | 0.00 | 1.42 | 0.01 | 88 | 990.2 |
| 20260506221522 | 51 | 138 | 1.7 | 4.3 | 0.00 | 1.42 | 0.01 | 88 | 990.2 |
| 20260506221422 | 51 | 139 | 1.7 | 2.6 | 0.00 | 1.42 | 0.01 | 89 | 990.3 |
| 20260506221322 | 51 | 158 | 0.9 | 2.6 | 0.00 | 1.42 | 0.01 | 89 | 990.3 |
| 20260506221221 | 51 | 125 | 0.9 | 2.6 | 0.00 | 1.42 | 0.01 | 89 | 990.3 |
| 20260506221121 | 51 | 112 | 0.0 | 0.9 | 0.00 | 1.42 | 0.01 | 89 | 990.2 |
| 20260506221021 | 51 | 124 | 0.0 | 0.9 | 0.00 | 1.42 | 0.01 | 89 | 990.3 |
| 20260506220921 | 51 | 113 | 0.0 | 0.9 | 0.00 | 1.42 | 0.01 | 89 | 990.2 |
| 20260506220821 | 51 | 128 | 0.9 | 2.6 | 0.00 | 1.42 | 0.01 | 89 | 990.2 |
| 20260506220721 | 51 | 112 | 0.0 | 0.9 | 0.00 | 1.42 | 0.01 | 89 | 990.2 |
| 20260506220621 | 51 | 112 | 0.9 | 1.7 | 0.00 | 1.41 | 0.00 | 89 | 990.2 |
| 20260506220521 | 51 | 112 | 0.9 | 1.7 | 0.00 | 1.41 | 0.00 | 89 | 990.3 |
| 20260506220421 | 51 | 84 | 0.9 | 1.7 | 0.00 | 1.41 | 0.00 | 89 | 990.3 |
| 20260506220322 | 51 | 112 | 0.9 | 1.7 | 0.00 | 1.41 | 0.00 | 89 | 990.2 |
| 20260506220221 | 51 | 114 | 0.0 | 2.6 | 0.00 | 1.41 | 0.00 | 89 | 990.4 |
| 20260506220121 | 51 | 134 | 1.7 | 2.6 | 0.00 | 1.41 | 0.00 | 88 | 990.3 |
| 20260506220021 | 51 | 135 | 0.9 | 2.6 | 0.00 | 1.41 | 0.00 | 89 | 990.3 |
| 20260506215921 | 51 | 135 | 0.9 | 1.7 | 0.13 | 1.41 | 1.41 | 89 | 990.3 |
| 20260506215821 | 51 | 76 | 0.0 | 1.7 | 0.13 | 1.41 | 1.41 | 89 | 990.3 |
| 20260506215721 | 51 | 112 | 0.0 | 0.9 | 0.13 | 1.41 | 1.41 | 89 | 990.4 |
| 20260506215621 | 51 | 129 | 0.0 | 0.9 | 0.14 | 1.41 | 1.41 | 89 | 990.3 |
| 20260506215521 | 51 | 315 | 0.0 | 0.9 | 0.13 | 1.39 | 1.39 | 89 | 990.2 |
| 20260506215421 | 51 | 298 | 0.9 | 2.6 | 0.13 | 1.39 | 1.39 | 89 | 990.3 |
| 20260506215323 | 51 | 112 | 0.9 | 2.6 | 0.13 | 1.39 | 1.39 | 89 | 990.2 |
| 20260506215223 | 51 | 133 | 0.9 | 2.6 | 0.13 | 1.39 | 1.39 | 89 | 990.2 |
| 20260506215123 | 51 | 124 | 0.9 | 2.6 | 0.14 | 1.39 | 1.39 | 89 | 990.3 |
| 20260506215022 | 51 | 79 | 0.9 | 1.7 | 0.14 | 1.39 | 1.39 | 89 | 990.3 |
| 20260506214922 | 51 | 133 | 0.9 | 1.7 | 0.14 | 1.39 | 1.39 | 89 | 990.2 |
| 20260506214822 | 51 | 135 | 0.9 | 2.6 | 0.14 | 1.39 | 1.39 | 89 | 990.2 |
| 20260506214722 | 51 | 155 | 0.9 | 2.6 | 0.15 | 1.39 | 1.39 | 89 | 990.3 |
| 20260506214622 | 51 | 221 | 0.0 | 2.6 | 0.14 | 1.38 | 1.38 | 89 | 990.1 |
| 20260506214522 | 51 | 137 | 0.9 | 2.6 | 0.14 | 1.38 | 1.38 | 89 | 990.2 |
| 20260506214422 | 51 | 112 | 0.9 | 2.6 | 0.14 | 1.38 | 1.38 | 89 | 990.2 |
| 20260506214322 | 51 | 112 | 0.0 | 0.9 | 0.15 | 1.38 | 1.38 | 89 | 990.3 |
| 20260506214222 | 51 | 124 | 0.0 | 1.7 | 0.15 | 1.38 | 1.38 | 89 | 990.3 |
| 20260506214122 | 51 | 150 | 0.9 | 1.7 | 0.15 | 1.38 | 1.38 | 89 | 990.2 |
| 20260506214022 | 51 | 213 | 0.0 | 2.6 | 0.14 | 1.37 | 1.37 | 89 | 990.2 |
| 20260506213922 | 51 | 104 | 0.9 | 2.6 | 0.14 | 1.37 | 1.37 | 89 | 990.3 |
| 20260506213822 | 51 | 76 | 0.0 | 0.0 | 0.14 | 1.37 | 1.37 | 89 | 990.3 |
| 20260506213722 | 51 | 10 | 0.0 | 1.7 | 0.15 | 1.37 | 1.37 | 89 | 990.2 |
| 20260506213622 | 51 | 112 | 0.9 | 1.7 | 0.14 | 1.36 | 1.36 | 89 | 990.2 |
| 20260506213522 | 51 | 96 | 0.9 | 4.3 | 0.15 | 1.36 | 1.36 | 89 | 990.3 |
| 20260506213422 | 51 | 52 | 0.9 | 4.3 | 0.15 | 1.36 | 1.36 | 89 | 990.3 |
| 20260506213322 | 51 | 128 | 0.9 | 4.3 | 0.15 | 1.36 | 1.36 | 89 | 990.3 |
| 20260506213222 | 51 | 97 | 0.0 | 4.3 | 0.15 | 1.36 | 1.36 | 89 | 990.4 |
| 20260506213122 | 51 | 97 | 0.0 | 1.7 | 0.17 | 1.36 | 1.36 | 89 | 990.3 |
| 20260506213022 | 51 | 16 | 0.0 | 1.7 | 0.17 | 1.36 | 1.36 | 89 | 990.4 |
| 20260506212922 | 51 | 56 | 0.0 | 1.7 | 0.17 | 1.36 | 1.36 | 89 | 990.4 |
| 20260506212822 | 51 | 122 | 0.9 | 1.7 | 0.17 | 1.35 | 1.35 | 89 | 990.3 |
| 20260506212722 | 52 | 158 | 0.9 | 1.7 | 0.17 | 1.35 | 1.35 | 89 | 990.4 |
| 20260506212622 | 51 | 117 | 1.7 | 2.6 | 0.18 | 1.35 | 1.35 | 89 | 990.5 |
| 20260506212522 | 51 | 137 | 1.7 | 2.6 | 0.18 | 1.35 | 1.35 | 89 | 990.4 |
| 20260506212422 | 51 | 115 | 0.0 | 1.7 | 0.18 | 1.35 | 1.35 | 89 | 990.3 |
| 20260506212322 | 51 | 104 | 0.9 | 2.6 | 0.17 | 1.33 | 1.33 | 89 | 990.2 |
| 20260506212221 | 51 | 131 | 0.9 | 2.6 | 0.17 | 1.33 | 1.33 | 89 | 990.2 |
| 20260506212121 | 51 | 143 | 0.9 | 1.7 | 0.17 | 1.33 | 1.33 | 89 | 990.3 |
| 20260506212021 | 51 | 125 | 0.9 | 1.7 | 0.17 | 1.33 | 1.33 | 89 | 990.3 |
| 20260506211921 | 51 | 112 | 0.9 | 1.7 | 0.15 | 1.32 | 1.32 | 89 | 990.3 |
| 20260506211821 | 51 | 97 | 0.9 | 0.9 | 0.15 | 1.32 | 1.32 | 89 | 990.3 |
| 20260506211721 | 51 | 124 | 0.0 | 1.7 | 0.17 | 1.32 | 1.32 | 89 | 990.4 |
| 20260506211621 | 51 | 106 | 0.9 | 2.6 | 0.17 | 1.32 | 1.32 | 89 | 990.3 |
| 20260506211521 | 51 | 99 | 0.9 | 2.6 | 0.17 | 1.31 | 1.31 | 89 | 990.2 |
| 20260506211421 | 51 | 147 | 0.9 | 1.7 | 0.17 | 1.31 | 1.31 | 89 | 990.2 |
| 20260506211321 | 51 | 157 | 0.9 | 2.6 | 0.17 | 1.31 | 1.31 | 89 | 990.3 |
| 20260506211221 | 51 | 123 | 0.9 | 2.6 | 0.17 | 1.31 | 1.31 | 89 | 990.4 |
| 20260506211121 | 51 | 135 | 0.9 | 1.7 | 0.17 | 1.30 | 1.30 | 89 | 990.3 |
| 20260506211021 | 51 | 135 | 0.0 | 0.9 | 0.17 | 1.30 | 1.30 | 89 | 990.3 |
| 20260506210921 | 51 | 135 | 0.0 | 0.9 | 0.17 | 1.30 | 1.30 | 89 | 990.4 |
| 20260506210821 | 51 | 104 | 0.0 | 0.9 | 0.18 | 1.30 | 1.30 | 89 | 990.3 |
| 20260506210721 | 51 | 120 | 0.0 | 0.9 | 0.18 | 1.30 | 1.30 | 89 | 990.3 |
| 20260506210621 | 52 | 353 | 0.9 | 1.7 | 0.19 | 1.30 | 1.30 | 89 | 990.3 |
| 20260506210521 | 52 | 307 | 0.9 | 1.7 | 0.19 | 1.30 | 1.30 | 89 | 990.4 |
| 20260506210421 | 52 | 170 | 0.9 | 1.7 | 0.19 | 1.30 | 1.30 | 89 | 990.3 |
| 20260506210321 | 52 | 102 | 0.9 | 4.3 | 0.19 | 1.29 | 1.29 | 89 | 990.4 |
| 20260506210221 | 52 | 90 | 0.0 | 4.3 | 0.19 | 1.29 | 1.29 | 89 | 990.4 |
| 20260506210121 | 52 | 100 | 0.0 | 0.9 | 0.19 | 1.29 | 1.29 | 89 | 990.3 |
| 20260506210023 | 52 | 349 | 0.0 | 2.6 | 0.18 | 1.28 | 1.28 | 88 | 990.3 |
| 20260506205923 | 52 | 22 | 0.9 | 2.6 | 0.18 | 1.28 | 1.28 | 88 | 990.3 |
| 20260506205822 | 52 | 118 | 0.9 | 1.7 | 0.19 | 1.28 | 1.28 | 88 | 990.3 |
| 20260506205722 | 52 | 112 | 0.9 | 1.7 | 0.19 | 1.28 | 1.28 | 88 | 990.4 |
| 20260506205622 | 52 | 112 | 0.0 | 2.6 | 0.18 | 1.26 | 1.26 | 88 | 990.3 |
| 20260506205522 | 52 | 85 | 0.0 | 2.6 | 0.19 | 1.26 | 1.26 | 88 | 990.3 |
| 20260506205422 | 52 | 109 | 0.0 | 1.7 | 0.19 | 1.26 | 1.26 | 88 | 990.3 |
| 20260506205322 | 52 | 177 | 0.9 | 1.7 | 0.19 | 1.26 | 1.26 | 88 | 990.2 |
| 20260506205222 | 52 | 137 | 1.7 | 5.2 | 0.19 | 1.26 | 1.26 | 87 | 990.3 |
| 20260506205122 | 52 | 109 | 1.7 | 5.2 | 0.19 | 1.25 | 1.25 | 87 | 990.2 |
| 20260506205022 | 52 | 96 | 0.9 | 2.6 | 0.19 | 1.25 | 1.25 | 88 | 990.2 |
| 20260506204922 | 52 | 136 | 1.7 | 6.1 | 0.20 | 1.25 | 1.25 | 87 | 990.1 |
| 20260506204822 | 52 | 146 | 0.9 | 6.1 | 0.20 | 1.25 | 1.25 | 88 | 990.2 |
| 20260506204722 | 52 | 143 | 0.9 | 1.7 | 0.20 | 1.24 | 1.24 | 88 | 990.3 |
| 20260506204622 | 52 | 119 | 1.7 | 2.6 | 0.20 | 1.24 | 1.24 | 88 | 990.3 |
| 20260506204522 | 52 | 112 | 0.9 | 2.6 | 0.20 | 1.24 | 1.24 | 89 | 990.3 |
| 20260506204422 | 52 | 123 | 0.9 | 1.7 | 0.21 | 1.24 | 1.24 | 89 | 990.3 |
| 20260506204322 | 52 | 158 | 0.9 | 1.7 | 0.20 | 1.23 | 1.23 | 88 | 990.3 |
| 20260506204222 | 52 | 141 | 0.9 | 1.7 | 0.20 | 1.23 | 1.23 | 88 | 990.3 |
| 20260506204122 | 52 | 134 | 0.9 | 1.7 | 0.20 | 1.23 | 1.23 | 88 | 990.3 |
| 20260506204022 | 52 | 135 | 0.9 | 1.7 | 0.20 | 1.23 | 1.23 | 88 | 990.3 |
| 20260506203922 | 52 | 279 | 0.9 | 2.6 | 0.20 | 1.23 | 1.23 | 88 | 990.3 |
| 20260506203822 | 52 | 34 | 0.9 | 2.6 | 0.21 | 1.23 | 1.23 | 88 | 990.3 |
| 20260506203722 | 52 | 105 | 0.9 | 1.7 | 0.20 | 1.22 | 1.22 | 89 | 990.3 |
| 20260506203622 | 52 | 92 | 0.9 | 1.7 | 0.20 | 1.22 | 1.22 | 89 | 990.2 |
| 20260506203522 | 52 | 93 | 1.7 | 4.3 | 0.20 | 1.20 | 1.20 | 88 | 990.3 |
| 20260506203421 | 52 | 127 | 1.7 | 4.3 | 0.20 | 1.20 | 1.20 | 89 | 990.3 |
| 20260506203321 | 52 | 124 | 0.9 | 4.3 | 0.20 | 1.20 | 1.20 | 89 | 990.3 |
| 20260506203221 | 52 | 106 | 0.0 | 1.7 | 0.21 | 1.20 | 1.20 | 89 | 990.3 |
| 20260506203121 | 52 | 97 | 0.9 | 1.7 | 0.20 | 1.19 | 1.19 | 89 | 990.4 |
| 20260506203021 | 52 | 129 | 0.9 | 2.6 | 0.20 | 1.19 | 1.19 | 89 | 990.3 |
| 20260506202921 | 52 | 124 | 0.9 | 2.6 | 0.21 | 1.19 | 1.19 | 89 | 990.3 |
| 20260506202821 | 52 | 127 | 0.9 | 5.2 | 0.20 | 1.18 | 1.18 | 89 | 990.2 |
| 20260506202721 | 52 | 120 | 1.7 | 5.2 | 0.21 | 1.18 | 1.18 | 88 | 990.4 |
| 20260506202621 | 52 | 149 | 1.7 | 4.3 | 0.20 | 1.17 | 1.17 | 88 | 990.5 |
| 20260506202521 | 52 | 132 | 0.9 | 4.3 | 0.20 | 1.17 | 1.17 | 89 | 990.4 |
| 20260506202421 | 52 | 102 | 0.9 | 4.3 | 0.20 | 1.17 | 1.17 | 89 | 990.3 |
| 20260506202321 | 52 | 160 | 0.9 | 2.6 | 0.21 | 1.17 | 1.17 | 89 | 990.2 |
| 20260506202221 | 52 | 133 | 0.9 | 1.7 | 0.21 | 1.17 | 1.17 | 88 | 990.3 |
| 20260506202121 | 52 | 127 | 0.9 | 0.9 | 0.21 | 1.17 | 1.17 | 89 | 990.3 |
| 20260506202021 | 52 | 112 | 0.9 | 0.9 | 0.22 | 1.17 | 1.17 | 89 | 990.3 |
| 20260506201921 | 52 | 81 | 0.9 | 1.7 | 0.24 | 1.17 | 1.17 | 89 | 990.3 |
| 20260506201821 | 52 | 148 | 0.0 | 1.7 | 0.24 | 1.17 | 1.17 | 89 | 990.3 |
| 20260506201723 | 52 | 125 | 0.9 | 5.2 | 0.22 | 1.16 | 1.16 | 88 | 990.4 |
| 20260506201623 | 52 | 127 | 1.7 | 5.2 | 0.24 | 1.16 | 1.16 | 88 | 990.3 |
| 20260506201523 | 52 | 123 | 0.9 | 2.6 | 0.22 | 1.15 | 1.15 | 89 | 990.4 |
| 20260506201423 | 52 | 121 | 0.9 | 1.7 | 0.24 | 1.15 | 1.15 | 89 | 990.4 |
| 20260506201323 | 52 | 151 | 1.7 | 6.1 | 0.24 | 1.15 | 1.15 | 88 | 990.2 |
| 20260506201223 | 52 | 135 | 0.9 | 6.1 | 0.25 | 1.15 | 1.15 | 89 | 990.3 |
| 20260506201122 | 52 | 124 | 0.9 | 1.7 | 0.24 | 1.13 | 1.13 | 89 | 990.3 |
| 20260506201022 | 52 | 135 | 0.9 | 2.6 | 0.24 | 1.13 | 1.13 | 89 | 990.2 |
| 20260506200922 | 52 | 122 | 1.7 | 4.3 | 0.24 | 1.13 | 1.13 | 89 | 990.3 |
| 20260506200822 | 52 | 122 | 0.9 | 4.3 | 0.24 | 1.12 | 1.12 | 89 | 990.3 |
| 20260506200722 | 52 | 135 | 0.9 | 2.6 | 0.24 | 1.12 | 1.12 | 89 | 990.4 |
| 20260506200622 | 52 | 96 | 0.0 | 0.9 | 0.22 | 1.11 | 1.11 | 89 | 990.4 |
| 20260506200522 | 52 | 106 | 0.0 | 4.3 | 0.24 | 1.11 | 1.11 | 88 | 990.2 |
| 20260506200422 | 52 | 128 | 1.7 | 5.2 | 0.24 | 1.11 | 1.11 | 88 | 990.3 |
| 20260506200322 | 52 | 86 | 1.7 | 5.2 | 0.22 | 1.10 | 1.10 | 88 | 990.2 |
| 20260506200222 | 52 | 95 | 0.9 | 4.3 | 0.24 | 1.10 | 1.10 | 89 | 990.2 |
| 20260506200122 | 52 | 112 | 0.9 | 2.6 | 0.24 | 1.10 | 1.10 | 89 | 990.3 |
| 20260506200022 | 52 | 94 | 0.0 | 1.7 | 0.25 | 1.10 | 1.10 | 89 | 990.3 |
| 20260506195922 | 52 | 71 | 0.9 | 2.6 | 0.25 | 1.10 | 1.10 | 89 | 990.2 |
| 20260506195822 | 52 | 292 | 0.9 | 2.6 | 0.25 | 1.09 | 1.09 | 89 | 990.3 |
| 20260506195722 | 52 | 85 | 0.9 | 1.7 | 0.25 | 1.09 | 1.09 | 89 | 990.3 |
| 20260506195622 | 52 | 121 | 0.9 | 1.7 | 0.25 | 1.09 | 1.09 | 89 | 990.2 |
| 20260506195522 | 52 | 167 | 0.9 | 4.3 | 0.24 | 1.07 | 1.07 | 89 | 990.2 |
| 20260506195422 | 52 | 180 | 1.7 | 4.3 | 0.24 | 1.07 | 1.07 | 89 | 990.2 |
| 20260506195322 | 52 | 150 | 0.9 | 4.3 | 0.25 | 1.07 | 1.07 | 89 | 990.2 |
| 20260506195222 | 52 | 271 | 0.9 | 2.6 | 0.25 | 1.07 | 1.07 | 89 | 990.2 |
| 20260506195122 | 52 | 344 | 0.0 | 2.6 | 0.25 | 1.06 | 1.06 | 90 | 990.2 |
| 20260506195022 | 52 | 315 | 0.0 | 0.9 | 0.25 | 1.06 | 1.06 | 90 | 990.3 |
| 20260506194922 | 52 | 101 | 0.0 | 0.9 | 0.25 | 1.05 | 1.05 | 90 | 990.2 |
| 20260506194822 | 52 | 111 | 0.0 | 1.7 | 0.26 | 1.05 | 1.05 | 89 | 990.2 |
| 20260506194721 | 52 | 112 | 0.9 | 1.7 | 0.25 | 1.04 | 1.04 | 90 | 990.2 |
| 20260506194621 | 52 | 118 | 0.9 | 1.7 | 0.26 | 1.04 | 1.04 | 90 | 990.2 |
| 20260506194521 | 52 | 79 | 0.0 | 1.7 | 0.26 | 1.04 | 1.04 | 90 | 990.2 |
| 20260506194421 | 52 | 326 | 0.9 | 1.7 | 0.26 | 1.03 | 1.03 | 90 | 990.2 |
| 20260506194321 | 52 | 82 | 0.9 | 2.6 | 0.26 | 1.03 | 1.03 | 89 | 990.2 |
| 20260506194221 | 52 | 81 | 0.9 | 2.6 | 0.26 | 1.03 | 1.03 | 89 | 990.2 |
| 20260506194121 | 52 | 108 | 0.9 | 1.7 | 0.26 | 1.03 | 1.03 | 90 | 990.1 |
| 20260506194021 | 52 | 46 | 0.9 | 1.7 | 0.27 | 1.03 | 1.03 | 90 | 990.1 |
| 20260506193921 | 52 | 145 | 0.0 | 0.9 | 0.27 | 1.03 | 1.03 | 90 | 990.2 |
| 20260506193821 | 52 | 103 | 0.0 | 0.9 | 0.26 | 1.02 | 1.02 | 90 | 990.1 |
| 20260506193721 | 52 | 98 | 0.0 | 1.7 | 0.27 | 1.02 | 1.02 | 90 | 990.1 |
| 20260506193621 | 52 | 127 | 0.0 | 1.7 | 0.27 | 1.02 | 1.02 | 90 | 990.0 |
| 20260506193521 | 52 | 118 | 0.0 | 0.9 | 0.26 | 1.00 | 1.00 | 90 | 990.0 |
| 20260506193421 | 52 | 338 | 0.9 | 2.6 | 0.26 | 1.00 | 1.00 | 90 | 990.0 |
| 20260506193321 | 52 | 93 | 0.9 | 2.6 | 0.27 | 1.00 | 1.00 | 90 | 990.1 |
| 20260506193221 | 52 | 7 | 0.9 | 2.6 | 0.26 | 0.99 | 0.99 | 90 | 990.1 |
| 20260506193121 | 52 | 332 | 0.9 | 2.6 | 0.26 | 0.99 | 0.99 | 90 | 990.1 |
| 20260506193021 | 52 | 76 | 0.0 | 0.9 | 0.26 | 0.99 | 0.99 | 90 | 990.2 |
| 20260506192921 | 52 | 79 | 0.9 | 0.9 | 0.25 | 0.98 | 0.98 | 90 | 990.2 |
| 20260506192821 | 52 | 41 | 0.0 | 0.9 | 0.26 | 0.98 | 0.98 | 90 | 990.0 |
| 20260506192723 | 52 | 112 | 0.0 | 0.9 | 0.25 | 0.97 | 0.97 | 90 | 990.0 |
| 20260506192623 | 52 | 112 | 0.0 | 0.9 | 0.25 | 0.97 | 0.97 | 89 | 990.0 |
| 20260506192523 | 52 | 112 | 0.0 | 1.7 | 0.25 | 0.97 | 0.97 | 89 | 990.0 |
| 20260506192423 | 52 | 90 | 0.9 | 1.7 | 0.25 | 0.97 | 0.97 | 90 | 989.9 |
| 20260506192323 | 52 | 65 | 0.0 | 1.7 | 0.25 | 0.96 | 0.96 | 89 | 990.0 |
| 20260506192222 | 52 | 90 | 0.0 | 0.0 | 0.25 | 0.96 | 0.96 | 89 | 989.9 |
| 20260506192122 | 52 | 101 | 0.0 | 0.9 | 0.25 | 0.96 | 0.96 | 89 | 989.9 |
| 20260506192022 | 52 | 286 | 0.0 | 1.7 | 0.24 | 0.94 | 0.94 | 89 | 989.9 |
| 20260506191922 | 52 | 229 | 0.0 | 1.7 | 0.22 | 0.93 | 0.93 | 89 | 989.9 |
| 20260506191822 | 52 | 256 | 0.9 | 2.6 | 0.22 | 0.93 | 0.93 | 89 | 989.7 |
| 20260506191722 | 52 | 99 | 0.0 | 2.6 | 0.22 | 0.93 | 0.93 | 89 | 989.7 |
| 20260506191622 | 52 | 16 | 0.9 | 2.6 | 0.21 | 0.92 | 0.92 | 89 | 989.8 |
| 20260506191522 | 52 | 92 | 0.0 | 2.6 | 0.21 | 0.92 | 0.92 | 89 | 989.7 |
| 20260506191422 | 52 | 96 | 0.9 | 1.7 | 0.20 | 0.91 | 0.91 | 88 | 989.8 |
| 20260506191322 | 52 | 115 | 1.7 | 4.3 | 0.21 | 0.91 | 0.91 | 88 | 989.7 |
| 20260506191222 | 52 | 215 | 0.9 | 2.6 | 0.20 | 0.90 | 0.90 | 89 | 989.8 |
| 20260506191122 | 52 | 158 | 0.9 | 2.6 | 0.20 | 0.90 | 0.90 | 89 | 989.8 |
| 20260506191022 | 52 | 171 | 0.9 | 2.6 | 0.20 | 0.90 | 0.90 | 89 | 989.7 |
| 20260506190922 | 52 | 162 | 0.9 | 1.7 | 0.20 | 0.90 | 0.90 | 89 | 989.7 |
| 20260506190822 | 52 | 122 | 0.9 | 1.7 | 0.19 | 0.89 | 0.89 | 89 | 989.5 |
| 20260506190722 | 52 | 1 | 0.9 | 1.7 | 0.20 | 0.89 | 0.89 | 89 | 989.6 |
| 20260506190622 | 52 | 132 | 0.9 | 1.7 | 0.20 | 0.89 | 0.89 | 89 | 989.8 |
| 20260506190522 | 52 | 52 | 0.0 | 0.0 | 0.19 | 0.87 | 0.87 | 89 | 989.8 |
| 20260506190422 | 52 | 45 | 0.0 | 0.9 | 0.19 | 0.87 | 0.87 | 89 | 989.7 |
| 20260506190322 | 52 | 45 | 0.9 | 4.3 | 0.19 | 0.87 | 0.87 | 89 | 989.6 |
| 20260506190222 | 52 | 59 | 0.9 | 4.3 | 0.18 | 0.86 | 0.86 | 88 | 989.6 |
| 20260506190122 | 52 | 112 | 0.9 | 4.3 | 0.19 | 0.86 | 0.86 | 89 | 989.6 |
| 20260506190022 | 52 | 115 | 0.9 | 0.9 | 0.18 | 0.85 | 0.85 | 89 | 989.6 |
| 20260506185922 | 52 | 135 | 0.9 | 1.7 | 0.18 | 0.85 | 0.85 | 89 | 989.7 |
| 20260506185821 | 52 | 118 | 0.0 | 1.7 | 0.17 | 0.84 | 0.84 | 89 | 989.5 |
| 20260506185721 | 52 | 61 | 0.0 | 1.7 | 0.17 | 0.84 | 0.84 | 89 | 989.5 |
| 20260506185621 | 52 | 96 | 0.9 | 4.3 | 0.17 | 0.84 | 0.84 | 89 | 989.4 |
| 20260506185521 | 52 | 89 | 0.9 | 4.3 | 0.17 | 0.84 | 0.84 | 88 | 989.4 |
| 20260506185421 | 52 | 39 | 0.0 | 1.7 | 0.17 | 0.84 | 0.84 | 89 | 989.5 |
| 20260506185321 | 52 | 90 | 0.9 | 1.7 | 0.17 | 0.83 | 0.83 | 89 | 989.5 |
| 20260506185221 | 52 | 123 | 0.0 | 1.7 | 0.17 | 0.83 | 0.83 | 89 | 989.4 |
| 20260506185121 | 52 | 151 | 0.0 | 1.7 | 0.15 | 0.81 | 0.81 | 89 | 989.4 |
| 20260506185021 | 52 | 159 | 0.9 | 2.6 | 0.15 | 0.81 | 0.81 | 89 | 989.5 |
| 20260506184921 | 52 | 165 | 0.9 | 2.6 | 0.14 | 0.80 | 0.80 | 88 | 989.3 |
| 20260506184821 | 53 | 91 | 0.0 | 2.6 | 0.13 | 0.79 | 0.79 | 88 | 989.3 |
| 20260506184721 | 53 | 31 | 0.9 | 2.6 | 0.13 | 0.79 | 0.79 | 88 | 989.3 |
| 20260506184621 | 53 | 255 | 0.9 | 2.6 | 0.12 | 0.78 | 0.78 | 89 | 989.3 |
| 20260506184521 | 53 | 115 | 0.0 | 1.7 | 0.12 | 0.78 | 0.78 | 89 | 989.3 |
| 20260506184421 | 53 | 112 | 0.0 | 1.7 | 0.11 | 0.77 | 0.77 | 88 | 989.2 |
| 20260506184321 | 53 | 100 | 0.9 | 2.6 | 0.11 | 0.77 | 0.77 | 88 | 989.2 |
| 20260506184221 | 53 | 90 | 0.9 | 2.6 | 0.12 | 0.77 | 0.77 | 88 | 989.2 |
| 20260506184121 | 53 | 121 | 0.0 | 2.6 | 0.12 | 0.77 | 0.77 | 89 | 989.3 |
| 20260506184021 | 53 | 114 | 0.0 | 0.9 | 0.11 | 0.76 | 0.76 | 89 | 989.4 |
| 20260506183923 | 53 | 155 | 0.9 | 1.7 | 0.11 | 0.76 | 0.76 | 89 | 989.1 |
| 20260506183823 | 53 | 112 | 0.9 | 1.7 | 0.11 | 0.76 | 0.76 | 89 | 989.3 |
| 20260506183723 | 53 | 343 | 0.0 | 0.9 | 0.09 | 0.74 | 0.74 | 89 | 989.3 |
| 20260506183622 | 53 | 338 | 0.0 | 0.9 | 0.09 | 0.74 | 0.74 | 89 | 989.2 |
| 20260506183522 | 53 | 338 | 0.0 | 0.9 | 0.09 | 0.74 | 0.74 | 89 | 989.2 |
| 20260506183422 | 53 | 38 | 0.0 | 0.9 | 0.09 | 0.74 | 0.74 | 89 | 989.1 |
| 20260506183322 | 53 | 347 | 0.0 | 0.9 | 0.08 | 0.73 | 0.73 | 88 | 989.2 |
| 20260506183222 | 53 | 96 | 0.0 | 4.3 | 0.08 | 0.73 | 0.73 | 88 | 989.2 |
| 20260506183122 | 53 | 135 | 2.6 | 4.3 | 0.09 | 0.73 | 0.73 | 87 | 989.2 |
| 20260506183022 | 53 | 135 | 2.6 | 4.3 | 0.09 | 0.73 | 0.73 | 87 | 989.2 |
| 20260506182922 | 53 | 135 | 1.7 | 4.3 | 0.09 | 0.73 | 0.73 | 87 | 989.0 |
| 20260506182822 | 53 | 116 | 0.9 | 2.6 | 0.08 | 0.72 | 0.72 | 88 | 989.0 |
| 20260506182722 | 53 | 90 | 0.0 | 2.6 | 0.08 | 0.72 | 0.72 | 88 | 989.0 |
| 20260506182622 | 53 | 150 | 0.9 | 4.3 | 0.08 | 0.72 | 0.72 | 87 | 989.1 |
| 20260506182522 | 53 | 142 | 0.9 | 4.3 | 0.08 | 0.72 | 0.72 | 87 | 989.0 |
| 20260506182422 | 53 | 340 | 1.7 | 4.3 | 0.08 | 0.72 | 0.72 | 87 | 989.0 |
| 20260506182322 | 53 | 356 | 1.7 | 4.3 | 0.07 | 0.71 | 0.71 | 87 | 989.1 |
| 20260506182222 | 53 | 133 | 0.9 | 1.7 | 0.07 | 0.71 | 0.71 | 88 | 989.0 |
| 20260506182122 | 53 | 93 | 0.0 | 0.9 | 0.07 | 0.71 | 0.71 | 88 | 989.1 |
| 20260506182022 | 53 | 108 | 0.0 | 0.9 | 0.07 | 0.71 | 0.71 | 88 | 989.1 |
| 20260506181922 | 53 | 88 | 0.0 | 0.9 | 0.07 | 0.71 | 0.71 | 88 | 988.9 |
| 20260506181822 | 53 | 69 | 0.9 | 2.6 | 0.07 | 0.71 | 0.71 | 87 | 989.0 |
| 20260506181722 | 53 | 88 | 0.0 | 2.6 | 0.07 | 0.71 | 0.71 | 88 | 988.9 |
| 20260506181622 | 53 | 102 | 0.0 | 1.7 | 0.07 | 0.71 | 0.71 | 88 | 988.9 |
| 20260506181522 | 53 | 64 | 0.0 | 1.7 | 0.07 | 0.71 | 0.71 | 88 | 988.9 |
| 20260506181422 | 53 | 7 | 0.9 | 2.6 | 0.07 | 0.71 | 0.71 | 88 | 988.7 |
| 20260506181321 | 53 | 158 | 0.9 | 2.6 | 0.06 | 0.70 | 0.70 | 88 | 988.8 |
| 20260506181221 | 53 | 104 | 0.0 | 1.7 | 0.06 | 0.70 | 0.70 | 88 | 988.9 |
| 20260506181121 | 53 | 75 | 0.0 | 1.7 | 0.06 | 0.70 | 0.70 | 88 | 988.8 |
| 20260506181021 | 53 | 5 | 0.9 | 2.6 | 0.06 | 0.70 | 0.70 | 88 | 988.8 |
| 20260506180921 | 53 | 76 | 0.9 | 2.6 | 0.06 | 0.70 | 0.70 | 88 | 988.8 |
| 20260506180821 | 53 | 82 | 0.9 | 2.6 | 0.06 | 0.70 | 0.70 | 88 | 988.9 |
| 20260506180721 | 53 | 112 | 0.0 | 2.6 | 0.05 | 0.69 | 0.69 | 88 | 988.8 |
| 20260506180621 | 53 | 45 | 0.0 | 0.9 | 0.06 | 0.69 | 0.69 | 88 | 988.9 |
| 20260506180521 | 53 | 57 | 0.0 | 2.6 | 0.06 | 0.69 | 0.69 | 87 | 988.7 |
| 20260506180421 | 53 | 72 | 0.9 | 2.6 | 0.06 | 0.69 | 0.69 | 88 | 988.7 |
| 20260506180321 | 53 | 90 | 0.9 | 1.7 | 0.06 | 0.69 | 0.69 | 88 | 988.7 |
| 20260506180221 | 53 | 57 | 0.9 | 1.7 | 0.06 | 0.69 | 0.69 | 88 | 988.7 |
| 20260506180121 | 53 | 25 | 0.0 | 1.7 | 0.05 | 0.67 | 0.67 | 88 | 988.6 |
| 20260506180021 | 53 | 340 | 0.0 | 0.9 | 0.05 | 0.67 | 0.67 | 88 | 988.6 |
| 20260506175921 | 53 | 101 | 0.0 | 0.9 | 0.05 | 0.67 | 0.67 | 88 | 988.6 |
| 20260506175821 | 53 | 90 | 0.0 | 0.9 | 0.05 | 0.67 | 0.67 | 88 | 988.5 |
| 20260506175721 | 53 | 92 | 0.0 | 0.9 | 0.05 | 0.67 | 0.67 | 88 | 988.5 |
| 20260506175621 | 53 | 221 | 0.0 | 0.9 | 0.05 | 0.67 | 0.67 | 88 | 988.6 |
| 20260506175521 | 53 | 190 | 0.0 | 0.0 | 0.05 | 0.67 | 0.67 | 88 | 988.6 |
| 20260506175421 | 53 | 121 | 0.0 | 0.9 | 0.05 | 0.67 | 0.67 | 88 | 988.6 |
| 20260506175321 | 53 | 98 | 0.0 | 0.9 | 0.04 | 0.66 | 0.66 | 88 | 988.6 |
| 20260506175223 | 53 | 112 | 0.0 | 0.0 | 0.04 | 0.66 | 0.66 | 88 | 988.7 |
| 20260506175123 | 53 | 112 | 0.0 | 0.9 | 0.04 | 0.66 | 0.66 | 88 | 988.6 |
| 20260506175023 | 53 | 67 | 0.0 | 0.9 | 0.04 | 0.66 | 0.66 | 88 | 988.6 |
| 20260506174923 | 53 | 34 | 0.0 | 0.9 | 0.04 | 0.66 | 0.66 | 88 | 988.5 |
| 20260506174822 | 53 | 48 | 0.0 | 0.9 | 0.05 | 0.66 | 0.66 | 88 | 988.5 |
| 20260506174722 | 53 | 40 | 0.0 | 1.7 | 0.05 | 0.66 | 0.66 | 88 | 988.4 |
| 20260506174622 | 53 | 151 | 0.9 | 1.7 | 0.05 | 0.66 | 0.66 | 88 | 988.5 |
| 20260506174522 | 53 | 57 | 0.0 | 1.7 | 0.05 | 0.66 | 0.66 | 88 | 988.5 |
| 20260506174422 | 53 | 88 | 0.0 | 0.9 | 0.05 | 0.66 | 0.66 | 88 | 988.5 |
| 20260506174322 | 53 | 90 | 0.0 | 0.9 | 0.05 | 0.66 | 0.66 | 88 | 988.4 |
| 20260506174222 | 53 | 90 | 0.0 | 1.7 | 0.04 | 0.65 | 0.65 | 88 | 988.4 |
| 20260506174122 | 53 | 125 | 0.0 | 1.7 | 0.04 | 0.65 | 0.65 | 88 | 988.4 |
| 20260506174022 | 53 | 233 | 0.0 | 0.9 | 0.04 | 0.65 | 0.65 | 88 | 988.4 |
| 20260506173922 | 53 | 315 | 0.0 | 0.9 | 0.04 | 0.65 | 0.65 | 88 | 988.4 |
| 20260506173822 | 53 | 18 | 0.0 | 0.9 | 0.04 | 0.65 | 0.65 | 88 | 988.4 |
| 20260506173722 | 53 | 15 | 0.0 | 1.7 | 0.04 | 0.65 | 0.65 | 87 | 988.6 |
| 20260506173622 | 53 | 97 | 0.9 | 4.3 | 0.04 | 0.65 | 0.65 | 87 | 988.3 |
| 20260506173522 | 53 | 92 | 1.7 | 4.3 | 0.04 | 0.65 | 0.65 | 87 | 988.2 |
| 20260506173422 | 53 | 90 | 0.9 | 1.7 | 0.04 | 0.65 | 0.65 | 87 | 988.2 |
| 20260506173322 | 53 | 211 | 0.0 | 1.7 | 0.04 | 0.65 | 0.65 | 88 | 988.4 |
| 20260506173222 | 53 | 80 | 0.0 | 0.9 | 0.04 | 0.65 | 0.65 | 87 | 988.3 |
| 20260506173122 | 53 | 52 | 0.0 | 0.9 | 0.02 | 0.64 | 0.64 | 87 | 988.3 |
| 20260506173022 | 53 | 141 | 0.0 | 0.9 | 0.02 | 0.64 | 0.64 | 87 | 988.3 |
| 20260506172922 | 53 | 95 | 0.0 | 0.9 | 0.02 | 0.64 | 0.64 | 87 | 988.2 |
| 20260506172822 | 53 | 82 | 0.0 | 0.0 | 0.02 | 0.64 | 0.64 | 87 | 988.3 |
| 20260506172722 | 53 | 75 | 0.0 | 0.9 | 0.02 | 0.64 | 0.64 | 87 | 988.3 |
| 20260506172622 | 53 | 78 | 0.0 | 0.9 | 0.02 | 0.64 | 0.64 | 87 | 988.2 |
| 20260506172522 | 53 | 97 | 0.0 | 1.7 | 0.02 | 0.64 | 0.64 | 86 | 988.3 |
| 20260506172422 | 54 | 112 | 0.9 | 1.7 | 0.02 | 0.64 | 0.64 | 86 | 988.2 |
| 20260506172322 | 54 | 71 | 0.0 | 1.7 | 0.02 | 0.64 | 0.64 | 87 | 988.1 |
| 20260506172222 | 54 | 340 | 0.0 | 0.9 | 0.02 | 0.64 | 0.64 | 86 | 988.3 |
| 20260506172122 | 54 | 326 | 0.9 | 1.7 | 0.04 | 0.64 | 0.64 | 86 | 988.2 |
| 20260506172022 | 54 | 198 | 0.9 | 1.7 | 0.04 | 0.65 | 0.64 | 86 | 988.0 |
| 20260506171922 | 54 | 102 | 0.0 | 1.7 | 0.04 | 0.65 | 0.64 | 86 | 988.2 |
| 20260506171822 | 54 | 270 | 0.9 | 1.7 | 0.04 | 0.65 | 0.64 | 86 | 988.1 |
| 20260506171722 | 54 | 335 | 0.9 | 1.7 | 0.04 | 0.65 | 0.64 | 86 | 988.2 |
| 20260506171622 | 54 | 105 | 0.9 | 0.9 | 0.04 | 0.65 | 0.64 | 86 | 988.1 |
| 20260506171522 | 54 | 12 | 0.0 | 0.9 | 0.04 | 0.65 | 0.64 | 86 | 988.2 |
| 20260506171421 | 54 | 90 | 0.0 | 1.7 | 0.04 | 0.65 | 0.64 | 86 | 988.2 |
| 20260506171321 | 54 | 104 | 0.9 | 1.7 | 0.04 | 0.65 | 0.64 | 86 | 988.2 |
| 20260506171221 | 54 | 90 | 0.9 | 2.6 | 0.04 | 0.66 | 0.64 | 86 | 988.0 |
| 20260506171121 | 54 | 90 | 0.9 | 2.6 | 0.04 | 0.66 | 0.64 | 85 | 988.1 |
| 20260506171021 | 54 | 107 | 0.9 | 2.6 | 0.04 | 0.67 | 0.64 | 85 | 988.0 |
| 20260506170921 | 54 | 112 | 0.9 | 2.6 | 0.04 | 0.67 | 0.64 | 86 | 988.2 |
| 20260506170821 | 54 | 93 | 0.9 | 0.9 | 0.04 | 0.67 | 0.64 | 86 | 988.2 |
| 20260506170721 | 54 | 277 | 0.9 | 6.1 | 0.04 | 0.67 | 0.64 | 86 | 988.1 |
| 20260506170621 | 54 | 112 | 1.7 | 6.1 | 0.02 | 0.67 | 0.63 | 86 | 988.0 |
| 20260506170521 | 54 | 79 | 0.9 | 1.7 | 0.02 | 0.67 | 0.63 | 86 | 988.0 |
| 20260506170421 | 54 | 93 | 0.0 | 0.9 | 0.02 | 0.67 | 0.63 | 86 | 988.1 |
| 20260506170321 | 54 | 248 | 0.0 | 0.9 | 0.02 | 0.67 | 0.63 | 86 | 988.1 |
| 20260506170221 | 54 | 230 | 0.9 | 5.2 | 0.02 | 0.67 | 0.63 | 86 | 988.1 |
| 20260506170121 | 54 | 241 | 0.9 | 5.2 | 0.02 | 0.69 | 0.63 | 86 | 988.0 |
| 20260506170021 | 54 | 129 | 0.9 | 1.7 | 0.02 | 0.71 | 0.63 | 85 | 988.0 |
| 20260506165921 | 54 | 116 | 0.9 | 1.7 | 0.02 | 0.71 | 0.63 | 85 | 988.1 |
| 20260506165821 | 54 | 107 | 0.9 | 1.7 | 0.02 | 0.76 | 0.63 | 85 | 988.0 |
| 20260506165723 | 54 | 154 | 0.9 | 2.6 | 0.02 | 0.77 | 0.63 | 85 | 988.1 |
| 20260506165623 | 54 | 143 | 0.9 | 5.2 | 0.02 | 0.79 | 0.63 | 86 | 988.1 |
| 20260506165523 | 54 | 135 | 0.9 | 5.2 | 0.02 | 0.80 | 0.63 | 86 | 988.0 |
| 20260506165423 | 54 | 150 | 0.9 | 5.2 | 0.02 | 0.83 | 0.63 | 85 | 988.0 |
| 20260506165323 | 54 | 140 | 0.9 | 4.3 | 0.02 | 0.83 | 0.63 | 86 | 988.1 |
| 20260506165222 | 54 | 52 | 0.0 | 4.3 | 0.02 | 0.84 | 0.63 | 86 | 988.0 |
| 20260506165122 | 54 | 52 | 0.9 | 4.3 | 0.02 | 0.85 | 0.63 | 86 | 988.1 |
| 20260506165022 | 54 | 91 | 0.9 | 1.7 | 0.02 | 0.86 | 0.63 | 86 | 988.0 |
| 20260506164922 | 54 | 110 | 0.9 | 1.7 | 0.02 | 0.86 | 0.63 | 85 | 988.0 |
| 20260506164822 | 54 | 116 | 0.9 | 1.7 | 0.01 | 0.85 | 0.61 | 85 | 988.0 |
| 20260506164722 | 54 | 116 | 0.9 | 1.7 | 0.01 | 0.86 | 0.61 | 85 | 988.0 |
| 20260506164622 | 54 | 150 | 0.9 | 2.6 | 0.01 | 0.86 | 0.61 | 85 | 988.1 |
| 20260506164522 | 54 | 158 | 0.9 | 2.6 | 0.01 | 0.86 | 0.61 | 85 | 988.2 |
| 20260506164422 | 54 | 104 | 0.9 | 4.3 | 0.01 | 0.86 | 0.61 | 85 | 988.1 |
| 20260506164322 | 54 | 112 | 0.9 | 2.6 | 0.01 | 0.86 | 0.61 | 85 | 988.1 |
| 20260506164222 | 54 | 319 | 0.9 | 4.3 | 0.01 | 0.87 | 0.61 | 85 | 988.1 |
| 20260506164122 | 54 | 253 | 1.7 | 4.3 | 0.01 | 0.87 | 0.61 | 86 | 988.1 |
| 20260506164022 | 54 | 138 | 0.9 | 1.7 | 0.01 | 0.87 | 0.61 | 86 | 988.0 |
| 20260506163922 | 54 | 135 | 0.9 | 2.6 | 0.01 | 0.89 | 0.61 | 85 | 988.0 |
| 20260506163822 | 54 | 124 | 0.9 | 2.6 | 0.01 | 0.89 | 0.61 | 86 | 987.9 |
| 20260506163722 | 54 | 68 | 0.9 | 1.7 | 0.01 | 0.89 | 0.61 | 86 | 988.0 |
| 20260506163622 | 54 | 109 | 0.9 | 2.6 | 0.01 | 0.89 | 0.61 | 85 | 988.0 |
| 20260506163522 | 54 | 112 | 0.9 | 2.6 | 0.01 | 0.89 | 0.61 | 85 | 988.0 |
| 20260506163422 | 55 | 131 | 0.9 | 2.6 | 0.01 | 0.89 | 0.61 | 85 | 988.1 |
| 20260506163322 | 55 | 135 | 0.9 | 1.7 | 0.01 | 0.89 | 0.61 | 86 | 988.0 |
| 20260506163222 | 55 | 152 | 0.9 | 1.7 | 0.01 | 0.89 | 0.61 | 85 | 988.1 |
| 20260506163122 | 55 | 135 | 0.9 | 1.7 | 0.01 | 0.89 | 0.61 | 85 | 988.1 |
| 20260506163021 | 55 | 150 | 0.0 | 1.7 | 0.01 | 0.90 | 0.61 | 86 | 988.1 |
| 20260506162921 | 55 | 159 | 0.0 | 1.7 | 0.01 | 0.90 | 0.61 | 86 | 988.0 |
| 20260506162821 | 55 | 236 | 0.9 | 1.7 | 0.01 | 0.90 | 0.61 | 85 | 988.0 |
| 20260506162721 | 54 | 201 | 0.9 | 2.6 | 0.01 | 0.91 | 0.61 | 86 | 988.1 |
| 20260506162621 | 54 | 124 | 0.9 | 2.6 | 0.01 | 0.91 | 0.61 | 85 | 988.1 |
| 20260506162521 | 54 | 116 | 0.9 | 1.7 | 0.01 | 0.91 | 0.61 | 85 | 988.1 |
| 20260506162421 | 54 | 112 | 0.9 | 2.6 | 0.01 | 0.91 | 0.61 | 85 | 988.2 |
| 20260506162321 | 54 | 112 | 0.9 | 2.6 | 0.01 | 0.91 | 0.61 | 85 | 988.0 |
| 20260506162221 | 55 | 112 | 0.9 | 1.7 | 0.01 | 0.91 | 0.61 | 85 | 988.1 |
| 20260506162121 | 54 | 131 | 0.9 | 1.7 | 0.00 | 0.90 | 0.60 | 85 | 988.1 |
| 20260506162021 | 54 | 118 | 0.0 | 1.7 | 0.00 | 0.91 | 0.60 | 86 | 988.2 |
| 20260506161921 | 54 | 40 | 0.0 | 1.7 | 0.00 | 0.91 | 0.60 | 85 | 988.0 |
| 20260506161821 | 54 | 112 | 0.9 | 1.7 | 0.00 | 0.91 | 0.60 | 85 | 988.0 |
| 20260506161721 | 54 | 113 | 0.0 | 1.7 | 0.00 | 0.91 | 0.60 | 86 | 988.0 |
| 20260506161621 | 54 | 244 | 0.9 | 0.9 | 0.00 | 0.91 | 0.60 | 85 | 988.2 |
| 20260506161521 | 54 | 264 | 0.9 | 4.3 | 0.01 | 0.91 | 0.60 | 84 | 988.2 |
| 20260506161421 | 54 | 290 | 0.9 | 4.3 | 0.01 | 0.91 | 0.60 | 84 | 988.2 |
| 20260506161321 | 54 | 216 | 0.9 | 1.7 | 0.01 | 0.91 | 0.60 | 85 | 988.1 |
| 20260506161223 | 54 | 114 | 0.9 | 1.7 | 0.01 | 0.91 | 0.60 | 86 | 988.1 |
| 20260506161123 | 54 | 112 | 0.9 | 1.7 | 0.01 | 0.91 | 0.60 | 86 | 988.1 |
| 20260506161023 | 54 | 37 | 0.0 | 1.7 | 0.01 | 0.91 | 0.60 | 86 | 988.1 |
| 20260506160923 | 54 | 357 | 0.0 | 1.7 | 0.01 | 0.91 | 0.60 | 85 | 988.1 |
| 20260506160822 | 54 | 131 | 0.9 | 1.7 | 0.01 | 0.91 | 0.60 | 85 | 988.1 |
| 20260506160722 | 54 | 129 | 0.9 | 1.7 | 0.01 | 0.91 | 0.60 | 85 | 988.2 |
| 20260506160622 | 54 | 119 | 0.9 | 1.7 | 0.01 | 0.91 | 0.60 | 85 | 988.1 |
| 20260506160522 | 54 | 135 | 1.7 | 2.6 | 0.01 | 0.91 | 0.60 | 85 | 988.1 |
| 20260506160422 | 55 | 113 | 0.9 | 2.6 | 0.02 | 0.91 | 0.60 | 85 | 988.0 |
| 20260506160322 | 55 | 45 | 1.7 | 5.2 | 0.02 | 0.91 | 0.60 | 85 | 988.0 |
| 20260506160222 | 55 | 48 | 1.7 | 5.2 | 0.02 | 0.91 | 0.60 | 85 | 988.2 |
| 20260506160122 | 55 | 118 | 0.0 | 1.7 | 0.02 | 0.91 | 0.60 | 85 | 988.2 |
| 20260506160022 | 55 | 98 | 0.9 | 1.7 | 0.02 | 0.91 | 0.60 | 86 | 988.1 |
| 20260506155922 | 55 | 180 | 0.9 | 2.6 | 0.04 | 0.91 | 0.60 | 85 | 988.1 |
| 20260506155822 | 55 | 169 | 1.7 | 4.3 | 0.04 | 0.91 | 0.60 | 84 | 988.1 |
| 20260506155722 | 55 | 115 | 0.9 | 4.3 | 0.04 | 0.91 | 0.60 | 85 | 988.2 |
| 20260506155622 | 55 | 68 | 0.0 | 2.6 | 0.05 | 0.91 | 0.60 | 86 | 988.1 |
| 20260506155522 | 55 | 76 | 0.0 | 4.3 | 0.05 | 0.91 | 0.60 | 85 | 988.1 |
| 20260506155422 | 55 | 98 | 0.9 | 4.3 | 0.05 | 0.91 | 0.60 | 85 | 987.9 |
| 20260506155322 | 55 | 139 | 0.9 | 4.3 | 0.06 | 0.91 | 0.60 | 84 | 988.1 |
| 20260506155222 | 55 | 352 | 0.9 | 4.3 | 0.06 | 0.91 | 0.60 | 84 | 988.2 |
| 20260506155122 | 55 | 69 | 0.9 | 0.9 | 0.06 | 0.91 | 0.60 | 85 | 988.2 |
| 20260506155022 | 55 | 140 | 0.9 | 2.6 | 0.06 | 0.91 | 0.60 | 83 | 988.1 |
| 20260506154922 | 55 | 164 | 1.7 | 5.2 | 0.06 | 0.91 | 0.60 | 83 | 988.2 |
| 20260506154822 | 55 | 178 | 2.6 | 5.2 | 0.07 | 0.91 | 0.60 | 82 | 988.1 |
| 20260506154722 | 55 | 119 | 1.7 | 5.2 | 0.07 | 0.91 | 0.60 | 83 | 988.1 |
| 20260506154622 | 55 | 59 | 0.9 | 1.7 | 0.07 | 0.91 | 0.60 | 84 | 988.1 |
| 20260506154522 | 55 | 123 | 0.9 | 4.3 | 0.08 | 0.91 | 0.60 | 83 | 988.1 |
| 20260506154422 | 55 | 113 | 1.7 | 4.3 | 0.08 | 0.91 | 0.60 | 83 | 988.2 |
| 20260506154322 | 55 | 84 | 0.9 | 4.3 | 0.08 | 0.91 | 0.60 | 84 | 988.2 |
| 20260506154221 | 55 | 225 | 0.9 | 4.3 | 0.08 | 0.91 | 0.60 | 84 | 988.1 |
| 20260506154122 | 55 | 122 | 0.9 | 5.2 | 0.09 | 0.91 | 0.60 | 83 | 988.1 |
| 20260506154021 | 55 | 112 | 1.7 | 5.2 | 0.09 | 0.91 | 0.60 | 84 | 988.1 |
| 20260506153921 | 55 | 112 | 0.9 | 5.2 | 0.09 | 0.91 | 0.60 | 85 | 988.1 |
| 20260506153821 | 55 | 217 | 0.9 | 1.7 | 0.09 | 0.91 | 0.60 | 85 | 988.1 |
| 20260506153721 | 55 | 262 | 0.9 | 4.3 | 0.09 | 0.91 | 0.60 | 85 | 988.2 |
| 20260506153621 | 55 | 246 | 1.7 | 4.3 | 0.11 | 0.91 | 0.60 | 85 | 988.1 |
| 20260506153521 | 55 | 113 | 0.9 | 5.2 | 0.11 | 0.91 | 0.60 | 85 | 988.2 |
| 20260506153421 | 55 | 112 | 1.7 | 5.2 | 0.11 | 0.91 | 0.60 | 85 | 988.2 |
| 20260506153322 | 55 | 107 | 0.9 | 5.2 | 0.11 | 0.91 | 0.60 | 86 | 988.1 |
| 20260506153221 | 55 | 91 | 0.9 | 2.6 | 0.12 | 0.91 | 0.60 | 86 | 988.4 |
| 20260506153121 | 55 | 143 | 0.9 | 4.3 | 0.12 | 0.91 | 0.60 | 86 | 988.1 |
| 20260506153021 | 55 | 131 | 0.9 | 4.3 | 0.13 | 0.91 | 0.60 | 86 | 988.1 |
| 20260506152921 | 55 | 109 | 0.9 | 2.6 | 0.13 | 0.91 | 0.60 | 87 | 988.0 |
| 20260506152821 | 55 | 135 | 0.9 | 2.6 | 0.13 | 0.91 | 0.60 | 87 | 988.1 |
| 20260506152721 | 55 | 112 | 0.9 | 1.7 | 0.14 | 0.91 | 0.60 | 87 | 988.2 |
| 20260506152621 | 55 | 68 | 0.9 | 1.7 | 0.14 | 0.91 | 0.60 | 87 | 988.1 |
| 20260506152521 | 55 | 85 | 0.9 | 1.7 | 0.14 | 0.91 | 0.60 | 87 | 988.1 |
| 20260506152421 | 55 | 111 | 1.7 | 4.3 | 0.14 | 0.91 | 0.60 | 86 | 988.1 |
| 20260506152321 | 55 | 107 | 1.7 | 4.3 | 0.15 | 0.91 | 0.60 | 87 | 988.0 |
| 20260506152223 | 55 | 52 | 0.0 | 1.7 | 0.15 | 0.91 | 0.60 | 87 | 988.0 |
| 20260506152123 | 55 | 124 | 0.9 | 1.7 | 0.15 | 0.91 | 0.60 | 87 | 988.0 |
| 20260506152023 | 55 | 135 | 0.9 | 1.7 | 0.15 | 0.91 | 0.60 | 88 | 988.1 |
| 20260506151923 | 55 | 127 | 0.9 | 1.7 | 0.15 | 0.91 | 0.60 | 88 | 988.0 |
| 20260506151822 | 55 | 112 | 0.9 | 2.6 | 0.15 | 0.91 | 0.60 | 87 | 988.0 |
| 20260506151722 | 55 | 112 | 0.9 | 2.6 | 0.17 | 0.91 | 0.60 | 87 | 988.0 |
| 20260506151622 | 55 | 112 | 1.7 | 4.3 | 0.17 | 0.91 | 0.60 | 88 | 988.0 |
| 20260506151522 | 55 | 112 | 1.7 | 4.3 | 0.15 | 0.90 | 0.59 | 88 | 988.1 |
| 20260506151422 | 55 | 112 | 1.7 | 4.3 | 0.15 | 0.90 | 0.59 | 88 | 988.0 |
| 20260506151322 | 55 | 112 | 1.7 | 4.3 | 0.15 | 0.90 | 0.59 | 88 | 988.1 |
| 20260506151222 | 55 | 36 | 0.0 | 2.6 | 0.15 | 0.90 | 0.59 | 89 | 988.1 |
| 20260506151122 | 55 | 66 | 0.9 | 1.7 | 0.15 | 0.90 | 0.59 | 89 | 988.1 |
| 20260506151022 | 55 | 309 | 0.0 | 1.7 | 0.17 | 0.90 | 0.59 | 89 | 988.2 |
| 20260506150922 | 55 | 137 | 0.0 | 0.9 | 0.17 | 0.90 | 0.59 | 89 | 988.3 |
| 20260506150822 | 55 | 112 | 0.9 | 2.6 | 0.17 | 0.90 | 0.59 | 89 | 988.1 |
| 20260506150722 | 55 | 152 | 0.9 | 6.1 | 0.17 | 0.90 | 0.59 | 89 | 988.3 |
| 20260506150622 | 55 | 122 | 0.9 | 6.1 | 0.17 | 0.90 | 0.59 | 89 | 988.2 |
| 20260506150522 | 55 | 123 | 0.9 | 2.6 | 0.17 | 0.90 | 0.59 | 89 | 988.1 |
| 20260506150422 | 55 | 48 | 0.9 | 2.6 | 0.17 | 0.89 | 0.58 | 89 | 988.0 |
| 20260506150322 | 55 | 172 | 0.9 | 1.7 | 0.17 | 0.89 | 0.58 | 89 | 988.0 |
| 20260506150222 | 55 | 53 | 0.9 | 1.7 | 0.18 | 0.89 | 0.58 | 89 | 988.0 |
| 20260506150122 | 55 | 248 | 0.9 | 1.7 | 0.19 | 0.89 | 0.58 | 89 | 988.0 |
| 20260506150022 | 55 | 39 | 0.9 | 1.7 | 0.20 | 0.89 | 0.58 | 89 | 988.0 |
| 20260506145922 | 55 | 315 | 0.9 | 1.7 | 0.19 | 0.87 | 0.57 | 89 | 988.0 |
| 20260506145822 | 55 | 82 | 0.9 | 4.3 | 0.20 | 0.87 | 0.57 | 88 | 988.1 |
| 20260506145722 | 55 | 99 | 0.9 | 4.3 | 0.21 | 0.87 | 0.57 | 89 | 987.9 |
| 20260506145621 | 55 | 323 | 0.9 | 2.6 | 0.20 | 0.86 | 0.56 | 88 | 988.0 |
| 20260506145521 | 55 | 67 | 0.9 | 1.7 | 0.21 | 0.86 | 0.56 | 88 | 987.9 |
| 20260506145421 | 55 | 324 | 0.9 | 1.7 | 0.21 | 0.86 | 0.56 | 88 | 987.9 |
| 20260506145321 | 55 | 145 | 0.9 | 2.6 | 0.21 | 0.85 | 0.54 | 88 | 987.9 |
| 20260506145221 | 55 | 315 | 0.9 | 2.6 | 0.21 | 0.85 | 0.54 | 88 | 987.9 |
| 20260506145121 | 55 | 14 | 1.7 | 4.3 | 0.21 | 0.85 | 0.54 | 88 | 987.8 |
| 20260506145021 | 55 | 113 | 1.7 | 5.2 | 0.21 | 0.85 | 0.54 | 88 | 987.8 |
| 20260506144921 | 55 | 201 | 0.9 | 5.2 | 0.21 | 0.85 | 0.54 | 88 | 987.8 |
| 20260506144821 | 55 | 158 | 0.9 | 1.7 | 0.20 | 0.84 | 0.53 | 88 | 987.9 |
| 20260506144721 | 55 | 143 | 0.9 | 2.6 | 0.20 | 0.84 | 0.53 | 88 | 987.8 |
| 20260506144621 | 55 | 142 | 0.9 | 2.6 | 0.21 | 0.84 | 0.53 | 88 | 987.7 |
| 20260506144521 | 55 | 121 | 0.9 | 5.2 | 0.20 | 0.83 | 0.52 | 88 | 987.8 |
| 20260506144421 | 55 | 94 | 1.7 | 5.2 | 0.20 | 0.83 | 0.52 | 88 | 987.8 |
| 20260506144321 | 55 | 50 | 0.9 | 1.7 | 0.20 | 0.83 | 0.52 | 89 | 987.8 |
| 20260506144221 | 55 | 97 | 0.9 | 1.7 | 0.20 | 0.83 | 0.52 | 89 | 987.8 |
| 20260506144121 | 55 | 90 | 0.9 | 1.7 | 0.19 | 0.81 | 0.51 | 88 | 987.7 |
| 20260506144023 | 55 | 97 | 0.9 | 2.6 | 0.19 | 0.81 | 0.51 | 88 | 987.8 |
| 20260506143923 | 55 | 22 | 1.7 | 4.3 | 0.19 | 0.81 | 0.51 | 88 | 987.8 |
| 20260506143823 | 55 | 26 | 1.7 | 4.3 | 0.19 | 0.81 | 0.51 | 88 | 987.8 |
| 20260506143722 | 55 | 112 | 1.7 | 2.6 | 0.19 | 0.81 | 0.51 | 88 | 987.7 |
| 20260506143622 | 55 | 112 | 1.7 | 6.1 | 0.18 | 0.80 | 0.50 | 88 | 987.7 |
| 20260506143522 | 55 | 313 | 0.9 | 6.1 | 0.18 | 0.80 | 0.50 | 89 | 987.9 |
| 20260506143422 | 55 | 99 | 0.9 | 2.6 | 0.18 | 0.80 | 0.50 | 89 | 987.9 |
| 20260506143322 | 55 | 111 | 0.0 | 2.6 | 0.18 | 0.80 | 0.50 | 89 | 987.8 |
| 20260506143222 | 55 | 103 | 0.9 | 1.7 | 0.17 | 0.79 | 0.48 | 89 | 987.8 |
| 20260506143122 | 55 | 135 | 1.7 | 4.3 | 0.17 | 0.79 | 0.48 | 89 | 987.7 |
| 20260506143022 | 55 | 180 | 1.7 | 4.3 | 0.15 | 0.78 | 0.47 | 88 | 987.8 |
| 20260506142922 | 55 | 136 | 0.9 | 4.3 | 0.15 | 0.78 | 0.47 | 88 | 987.7 |
| 20260506142822 | 55 | 3 | 1.7 | 2.6 | 0.15 | 0.78 | 0.47 | 88 | 987.6 |
| 20260506142722 | 55 | 180 | 1.7 | 2.6 | 0.14 | 0.77 | 0.46 | 88 | 987.5 |
| 20260506142622 | 55 | 35 | 0.9 | 4.3 | 0.14 | 0.77 | 0.46 | 89 | 987.7 |
| 20260506142522 | 55 | 81 | 0.9 | 4.3 | 0.14 | 0.77 | 0.46 | 89 | 987.7 |
| 20260506142422 | 55 | 347 | 0.9 | 4.3 | 0.14 | 0.77 | 0.46 | 89 | 987.7 |
| 20260506142322 | 56 | 17 | 0.9 | 1.7 | 0.14 | 0.76 | 0.45 | 89 | 987.7 |
| 20260506142222 | 56 | 311 | 0.9 | 4.3 | 0.14 | 0.76 | 0.45 | 88 | 987.6 |
| 20260506142122 | 56 | 3 | 0.9 | 4.3 | 0.14 | 0.76 | 0.45 | 88 | 987.6 |
| 20260506142022 | 56 | 13 | 0.9 | 1.7 | 0.14 | 0.76 | 0.45 | 88 | 987.6 |
| 20260506141922 | 56 | 92 | 0.9 | 1.7 | 0.14 | 0.76 | 0.45 | 88 | 987.7 |
| 20260506141822 | 56 | 40 | 0.9 | 1.7 | 0.14 | 0.76 | 0.45 | 88 | 987.6 |
| 20260506141722 | 56 | 81 | 0.9 | 1.7 | 0.13 | 0.74 | 0.44 | 88 | 987.7 |
| 20260506141622 | 56 | 135 | 0.9 | 1.7 | 0.13 | 0.74 | 0.44 | 88 | 987.7 |
| 20260506141522 | 56 | 345 | 0.9 | 1.7 | 0.13 | 0.74 | 0.44 | 88 | 987.6 |
| 20260506141422 | 56 | 80 | 0.9 | 1.7 | 0.13 | 0.74 | 0.44 | 87 | 987.6 |
| 20260506141322 | 56 | 303 | 0.9 | 1.7 | 0.13 | 0.74 | 0.44 | 88 | 987.6 |
| 20260506141222 | 56 | 112 | 0.9 | 2.6 | 0.13 | 0.74 | 0.44 | 88 | 987.4 |
| 20260506141122 | 56 | 284 | 0.9 | 2.6 | 0.14 | 0.74 | 0.44 | 88 | 987.5 |
| 20260506141022 | 56 | 175 | 0.9 | 1.7 | 0.14 | 0.73 | 0.43 | 88 | 987.5 |
| 20260506140921 | 56 | 46 | 0.9 | 5.2 | 0.14 | 0.73 | 0.43 | 88 | 987.5 |
| 20260506140821 | 56 | 134 | 0.9 | 5.2 | 0.15 | 0.73 | 0.43 | 88 | 987.3 |
| 20260506140721 | 56 | 100 | 0.9 | 5.2 | 0.17 | 0.73 | 0.43 | 88 | 987.4 |
| 20260506140621 | 56 | 99 | 0.9 | 4.3 | 0.18 | 0.73 | 0.43 | 89 | 987.3 |
| 20260506140521 | 56 | 102 | 0.0 | 4.3 | 0.20 | 0.73 | 0.43 | 89 | 987.5 |
| 20260506140421 | 56 | 180 | 0.9 | 1.7 | 0.22 | 0.72 | 0.41 | 88 | 987.6 |
| 20260506140321 | 56 | 33 | 0.9 | 2.6 | 0.28 | 0.72 | 0.41 | 88 | 987.5 |
| 20260506140221 | 56 | 135 | 0.9 | 2.6 | 0.28 | 0.71 | 0.40 | 89 | 987.6 |
| 20260506140121 | 56 | 95 | 0.0 | 0.9 | 0.28 | 0.70 | 0.39 | 88 | 987.5 |
| 20260506140021 | 56 | 53 | 0.0 | 0.9 | 0.30 | 0.69 | 0.38 | 88 | 987.4 |
| 20260506135921 | 56 | 82 | 0.0 | 0.9 | 0.37 | 0.69 | 0.38 | 88 | 987.6 |
| 20260506135821 | 56 | 337 | 0.0 | 0.9 | 0.35 | 0.67 | 0.37 | 87 | 987.6 |
| 20260506135721 | 56 | 312 | 0.9 | 1.7 | 0.35 | 0.66 | 0.35 | 87 | 987.5 |
| 20260506135621 | 56 | 82 | 0.9 | 1.7 | 0.35 | 0.66 | 0.35 | 87 | 987.5 |
| 20260506135521 | 56 | 327 | 0.0 | 1.7 | 0.34 | 0.65 | 0.34 | 87 | 987.4 |
| 20260506135421 | 57 | 303 | 0.0 | 1.7 | 0.34 | 0.65 | 0.34 | 86 | 987.5 |
| 20260506135321 | 57 | 138 | 0.9 | 1.7 | 0.33 | 0.64 | 0.33 | 86 | 987.5 |
| 20260506135221 | 57 | 21 | 0.0 | 1.7 | 0.33 | 0.64 | 0.33 | 87 | 987.4 |
| 20260506135121 | 57 | 329 | 0.0 | 0.0 | 0.33 | 0.64 | 0.33 | 88 | 987.4 |
| 20260506135021 | 57 | 315 | 0.0 | 0.0 | 0.33 | 0.64 | 0.33 | 88 | 987.3 |
| 20260506134921 | 56 | 315 | 0.0 | 0.0 | 0.33 | 0.64 | 0.33 | 88 | 987.3 |
| 20260506134821 | 56 | 315 | 0.0 | 0.0 | 0.33 | 0.64 | 0.33 | 88 | 987.3 |
| 20260506134723 | 56 | 306 | 0.0 | 0.0 | 0.33 | 0.64 | 0.33 | 88 | 987.2 |
| 20260506134623 | 57 | 235 | 0.0 | 2.6 | 0.32 | 0.63 | 0.32 | 89 | 987.4 |
| 20260506134523 | 57 | 267 | 0.9 | 2.6 | 0.32 | 0.63 | 0.32 | 88 | 987.3 |
| 20260506134422 | 57 | 280 | 0.0 | 2.6 | 0.32 | 0.63 | 0.32 | 89 | 987.5 |
| 20260506134322 | 57 | 5 | 0.0 | 0.0 | 0.32 | 0.63 | 0.32 | 90 | 987.3 |
| 20260506134222 | 57 | 15 | 0.0 | 0.0 | 0.32 | 0.63 | 0.32 | 90 | 987.3 |
| 20260506134122 | 57 | 0 | 0.0 | 0.0 | 0.32 | 0.63 | 0.32 | 90 | 987.3 |
| 20260506134022 | 57 | 79 | 0.0 | 0.0 | 0.32 | 0.63 | 0.32 | 90 | 987.3 |
| 20260506133922 | 57 | 53 | 0.0 | 0.0 | 0.32 | 0.63 | 0.32 | 90 | 987.4 |
| 20260506133822 | 57 | 345 | 0.0 | 0.0 | 0.32 | 0.63 | 0.32 | 90 | 987.2 |
| 20260506133722 | 57 | 338 | 0.0 | 0.0 | 0.32 | 0.63 | 0.32 | 90 | 987.3 |
| 20260506133622 | 57 | 298 | 0.0 | 0.0 | 0.32 | 0.63 | 0.32 | 90 | 987.2 |
| 20260506133522 | 57 | 292 | 0.0 | 0.0 | 0.32 | 0.63 | 0.32 | 90 | 987.3 |
| 20260506133422 | 57 | 17 | 0.0 | 0.0 | 0.32 | 0.63 | 0.32 | 90 | 987.1 |
| 20260506133322 | 57 | 304 | 0.0 | 0.9 | 0.32 | 0.63 | 0.32 | 89 | 987.3 |
| 20260506133222 | 57 | 347 | 0.0 | 0.9 | 0.32 | 0.63 | 0.32 | 90 | 987.3 |
| 20260506133122 | 57 | 351 | 0.0 | 0.0 | 0.32 | 0.63 | 0.32 | 90 | 987.2 |
| 20260506133022 | 57 | 292 | 0.0 | 0.9 | 0.32 | 0.63 | 0.32 | 89 | 987.3 |
| 20260506132922 | 57 | 313 | 0.0 | 2.6 | 0.32 | 0.63 | 0.32 | 89 | 987.4 |
| 20260506132822 | 57 | 251 | 0.9 | 2.6 | 0.32 | 0.63 | 0.32 | 89 | 987.4 |
| 20260506132722 | 57 | 255 | 0.9 | 2.6 | 0.32 | 0.63 | 0.32 | 89 | 987.4 |
| 20260506132622 | 57 | 270 | 0.9 | 2.6 | 0.32 | 0.63 | 0.32 | 89 | 987.2 |
| 20260506132522 | 57 | 300 | 0.9 | 2.6 | 0.32 | 0.63 | 0.32 | 89 | 987.4 |
| 20260506132422 | 57 | 285 | 0.9 | 2.6 | 0.32 | 0.63 | 0.32 | 89 | 987.3 |
| 20260506132322 | 57 | 290 | 0.9 | 2.6 | 0.31 | 0.61 | 0.31 | 89 | 987.4 |
| 20260506132222 | 57 | 338 | 0.9 | 2.6 | 0.31 | 0.61 | 0.31 | 89 | 987.3 |
| 20260506132122 | 57 | 254 | 0.0 | 0.9 | 0.31 | 0.61 | 0.31 | 89 | 987.2 |
| 20260506132021 | 57 | 311 | 0.0 | 0.9 | 0.31 | 0.61 | 0.31 | 90 | 987.3 |
| 20260506131921 | 57 | 303 | 0.0 | 0.9 | 0.31 | 0.61 | 0.31 | 89 | 987.3 |
| 20260506131821 | 57 | 285 | 0.0 | 0.9 | 0.31 | 0.61 | 0.31 | 89 | 987.2 |
| 20260506131721 | 57 | 305 | 0.0 | 0.9 | 0.31 | 0.61 | 0.31 | 89 | 987.1 |
| 20260506131621 | 57 | 322 | 0.0 | 0.0 | 0.31 | 0.61 | 0.31 | 89 | 987.3 |
| 20260506131521 | 57 | 325 | 0.0 | 0.0 | 0.31 | 0.61 | 0.31 | 89 | 987.2 |